Time,TemperatureF,DewpointF,PressureIn,WindDirection,WindDirectionDegrees,WindSpeedMPH,WindSpeedGustMPH,Humidity,HourlyPrecipIn,Conditions,Clouds,dailyrainin,SoftwareType,DateUTC
2013-08-25 00:00:00,53.5,50.3,30.39,South,184,0.0,1.0,89,0.00,,,0.00,Wunderground v.1.15,2013-08-25 04:00:00,
2013-08-25 00:04:00,53.5,50.3,30.39,South,184,0.0,1.0,89,0.00,,,0.00,Wunderground v.1.15,2013-08-25 04:04:00,
2013-08-25 00:06:00,53.5,50.3,30.39,South,184,0.0,1.0,89,0.00,,,0.00,Wunderground v.1.15,2013-08-25 04:06:00,
2013-08-25 00:07:00,53.5,50.3,30.39,South,184,0.0,1.0,89,0.00,,,0.00,Wunderground v.1.15,2013-08-25 04:07:00,
2013-08-25 00:09:00,53.5,50.3,30.39,South,184,0.0,1.0,89,0.00,,,0.00,Wunderground v.1.15,2013-08-25 04:09:00,
2013-08-25 00:11:00,53.4,50.2,30.39,South,184,0.0,1.0,89,0.00,,,0.00,Wunderground v.1.15,2013-08-25 04:11:00,
2013-08-25 00:12:00,53.5,50.3,30.39,South,184,0.0,1.0,89,0.00,,,0.00,Wunderground v.1.15,2013-08-25 04:12:00,
2013-08-25 00:14:00,53.5,50.3,30.39,South,184,0.0,1.0,89,0.00,,,0.00,Wunderground v.1.15,2013-08-25 04:14:00,
2013-08-25 00:16:00,53.5,50.3,30.39,South,184,0.0,1.0,89,0.00,,,0.00,Wunderground v.1.15,2013-08-25 04:16:00,
2013-08-25 00:18:00,53.5,50.3,30.39,South,184,0.0,0.0,89,0.00,,,0.00,Wunderground v.1.15,2013-08-25 04:18:00,
2013-08-25 00:19:00,53.5,50.3,30.39,South,184,0.0,1.0,89,0.00,,,0.00,Wunderground v.1.15,2013-08-25 04:19:00,
2013-08-25 00:20:00,53.5,50.3,30.39,South,184,0.0,1.0,89,0.00,,,0.00,Wunderground v.1.15,2013-08-25 04:20:00,
2013-08-25 00:21:00,53.5,50.3,30.39,South,184,0.0,1.0,89,0.00,,,0.00,Wunderground v.1.15,2013-08-25 04:21:00,
2013-08-25 00:23:00,53.4,50.2,30.39,South,184,1.0,2.0,89,0.00,,,0.00,Wunderground v.1.15,2013-08-25 04:23:00,
2013-08-25 00:24:00,53.4,50.2,30.39,South,184,0.0,2.0,89,0.00,,,0.00,Wunderground v.1.15,2013-08-25 04:24:00,
2013-08-25 00:25:00,53.4,50.2,30.39,South,184,0.0,2.0,89,0.00,,,0.00,Wunderground v.1.15,2013-08-25 04:25:00,
2013-08-25 00:28:00,53.5,50.3,30.39,South,184,0.0,0.0,89,0.00,,,0.00,Wunderground v.1.15,2013-08-25 04:28:00,
2013-08-25 00:30:00,53.4,50.2,30.39,South,184,0.0,0.0,89,0.00,,,0.00,Wunderground v.1.15,2013-08-25 04:30:00,
2013-08-25 00:33:00,53.3,50.1,30.39,South,184,0.0,0.0,89,0.00,,,0.00,Wunderground v.1.15,2013-08-25 04:33:00,
2013-08-25 00:34:00,53.3,50.1,30.38,South,184,1.0,1.0,89,0.00,,,0.00,Wunderground v.1.15,2013-08-25 04:34:00,
2013-08-25 00:35:00,53.2,50.0,30.38,South,184,0.0,1.0,89,0.00,,,0.00,Wunderground v.1.15,2013-08-25 04:35:00,
2013-08-25 00:41:00,53.0,49.8,30.38,South,184,1.0,1.0,89,0.00,,,0.00,Wunderground v.1.15,2013-08-25 04:41:00,
2013-08-25 00:42:00,52.9,49.7,30.38,South,184,0.0,1.0,89,0.00,,,0.00,Wunderground v.1.15,2013-08-25 04:42:00,
2013-08-25 00:44:00,52.9,49.7,30.38,South,184,0.0,1.0,89,0.00,,,0.00,Wunderground v.1.15,2013-08-25 04:44:00,
2013-08-25 00:46:00,52.8,49.6,30.38,South,184,0.0,0.0,89,0.00,,,0.00,Wunderground v.1.15,2013-08-25 04:46:00,
2013-08-25 00:48:00,52.7,49.5,30.38,South,184,0.0,0.0,89,0.00,,,0.00,Wunderground v.1.15,2013-08-25 04:48:00,
2013-08-25 00:51:00,52.7,49.5,30.38,South,184,0.0,0.0,89,0.00,,,0.00,Wunderground v.1.15,2013-08-25 04:51:00,
2013-08-25 00:53:00,52.6,49.4,30.38,South,184,0.0,0.0,89,0.00,,,0.00,Wunderground v.1.15,2013-08-25 04:53:00,
2013-08-25 00:54:00,52.6,49.4,30.38,South,184,1.0,1.0,89,0.00,,,0.00,Wunderground v.1.15,2013-08-25 04:54:00,
2013-08-25 00:55:00,52.6,49.4,30.38,South,184,1.0,1.0,89,0.00,,,0.00,Wunderground v.1.15,2013-08-25 04:55:00,
2013-08-25 00:56:00,52.6,49.4,30.38,South,184,1.0,1.0,89,0.00,,,0.00,Wunderground v.1.15,2013-08-25 04:56:00,
2013-08-25 00:58:00,52.6,49.4,30.38,South,184,1.0,1.0,89,0.00,,,0.00,Wunderground v.1.15,2013-08-25 04:58:00,
2013-08-25 01:02:00,52.5,49.4,30.38,South,184,1.0,1.0,89,0.00,,,0.00,Wunderground v.1.15,2013-08-25 05:02:00,
2013-08-25 01:03:00,52.5,49.4,30.38,South,184,0.0,1.0,89,0.00,,,0.00,Wunderground v.1.15,2013-08-25 05:03:00,
2013-08-25 01:04:00,52.5,49.4,30.38,South,184,0.0,1.0,89,0.00,,,0.00,Wunderground v.1.15,2013-08-25 05:04:00,
2013-08-25 01:08:00,52.4,49.3,30.38,South,184,0.0,0.0,89,0.00,,,0.00,Wunderground v.1.15,2013-08-25 05:08:00,
2013-08-25 01:09:00,52.4,49.3,30.37,South,184,0.0,0.0,89,0.00,,,0.00,Wunderground v.1.15,2013-08-25 05:09:00,
2013-08-25 01:10:00,52.4,49.3,30.37,South,184,0.0,0.0,89,0.00,,,0.00,Wunderground v.1.15,2013-08-25 05:10:00,
2013-08-25 01:11:00,52.4,49.3,30.37,South,184,0.0,0.0,89,0.00,,,0.00,Wunderground v.1.15,2013-08-25 05:11:00,
2013-08-25 01:15:00,52.4,49.3,30.37,South,184,0.0,0.0,89,0.00,,,0.00,Wunderground v.1.15,2013-08-25 05:15:00,
2013-08-25 01:16:00,52.4,49.3,30.37,South,184,0.0,0.0,89,0.00,,,0.00,Wunderground v.1.15,2013-08-25 05:16:00,
2013-08-25 01:17:00,52.4,49.3,30.37,South,184,0.0,0.0,89,0.00,,,0.00,Wunderground v.1.15,2013-08-25 05:17:00,
2013-08-25 01:19:00,52.4,49.3,30.37,South,184,0.0,0.0,89,0.00,,,0.00,Wunderground v.1.15,2013-08-25 05:19:00,
2013-08-25 01:24:00,52.3,49.2,30.37,South,184,1.0,1.0,89,0.00,,,0.00,Wunderground v.1.15,2013-08-25 05:24:00,
2013-08-25 01:25:00,52.2,49.1,30.37,South,184,0.0,1.0,89,0.00,,,0.00,Wunderground v.1.15,2013-08-25 05:25:00,
2013-08-25 01:29:00,52.2,49.1,30.37,South,184,0.0,0.0,89,0.00,,,0.00,Wunderground v.1.15,2013-08-25 05:29:00,
2013-08-25 01:30:00,52.2,49.1,30.37,South,184,0.0,0.0,89,0.00,,,0.00,Wunderground v.1.15,2013-08-25 05:30:00,
2013-08-25 01:31:00,52.2,49.1,30.38,South,184,1.0,1.0,89,0.00,,,0.00,Wunderground v.1.15,2013-08-25 05:31:00,
2013-08-25 01:32:00,52.2,49.1,30.37,South,184,0.0,1.0,89,0.00,,,0.00,Wunderground v.1.15,2013-08-25 05:32:00,
2013-08-25 01:35:00,52.2,49.1,30.37,South,184,0.0,1.0,89,0.00,,,0.00,Wunderground v.1.15,2013-08-25 05:35:00,
2013-08-25 01:38:00,52.3,49.2,30.37,South,184,0.0,2.0,89,0.00,,,0.00,Wunderground v.1.15,2013-08-25 05:38:00,
2013-08-25 01:39:00,52.4,49.3,30.37,South,184,0.0,2.0,89,0.00,,,0.00,Wunderground v.1.15,2013-08-25 05:39:00,
2013-08-25 01:40:00,52.4,49.3,30.37,South,184,0.0,2.0,89,0.00,,,0.00,Wunderground v.1.15,2013-08-25 05:40:00,
2013-08-25 01:42:00,52.5,49.4,30.37,South,184,1.0,2.0,89,0.00,,,0.00,Wunderground v.1.15,2013-08-25 05:42:00,
2013-08-25 01:46:00,52.8,49.6,30.37,South,184,0.0,0.0,89,0.00,,,0.00,Wunderground v.1.15,2013-08-25 05:46:00,
2013-08-25 01:47:00,52.8,49.6,30.37,South,184,0.0,0.0,89,0.00,,,0.00,Wunderground v.1.15,2013-08-25 05:47:00,
2013-08-25 01:51:00,53.0,49.8,30.37,South,184,0.0,0.0,89,0.00,,,0.00,Wunderground v.1.15,2013-08-25 05:51:00,
2013-08-25 01:53:00,53.0,49.8,30.37,South,184,0.0,0.0,89,0.00,,,0.00,Wunderground v.1.15,2013-08-25 05:53:00,
2013-08-25 01:54:00,53.0,49.8,30.37,South,184,0.0,0.0,89,0.00,,,0.00,Wunderground v.1.15,2013-08-25 05:54:00,
2013-08-25 01:55:00,53.0,49.8,30.37,South,184,0.0,0.0,89,0.00,,,0.00,Wunderground v.1.15,2013-08-25 05:55:00,
2013-08-25 01:59:00,53.0,49.8,30.37,South,184,0.0,0.0,89,0.00,,,0.00,Wunderground v.1.15,2013-08-25 05:59:00,
2013-08-25 02:00:00,53.0,49.8,30.37,South,184,0.0,0.0,89,0.00,,,0.00,Wunderground v.1.15,2013-08-25 06:00:00,
2013-08-25 02:01:00,53.0,49.8,30.37,South,184,0.0,0.0,89,0.00,,,0.00,Wunderground v.1.15,2013-08-25 06:01:00,
2013-08-25 02:02:00,53.0,49.8,30.37,South,184,0.0,0.0,89,0.00,,,0.00,Wunderground v.1.15,2013-08-25 06:02:00,
2013-08-25 02:04:00,53.0,49.8,30.37,South,184,0.0,0.0,89,0.00,,,0.00,Wunderground v.1.15,2013-08-25 06:04:00,
2013-08-25 02:05:00,53.0,49.8,30.36,South,184,0.0,0.0,89,0.00,,,0.00,Wunderground v.1.15,2013-08-25 06:05:00,
2013-08-25 02:07:00,52.9,49.7,30.36,South,184,0.0,0.0,89,0.00,,,0.00,Wunderground v.1.15,2013-08-25 06:07:00,
2013-08-25 02:09:00,52.8,49.6,30.36,South,184,0.0,0.0,89,0.00,,,0.00,Wunderground v.1.15,2013-08-25 06:09:00,
2013-08-25 02:11:00,52.8,49.6,30.36,South,184,0.0,0.0,89,0.00,,,0.00,Wunderground v.1.15,2013-08-25 06:11:00,
2013-08-25 02:14:00,52.8,49.6,30.36,South,184,0.0,0.0,89,0.00,,,0.00,Wunderground v.1.15,2013-08-25 06:14:00,
2013-08-25 02:16:00,52.7,49.5,30.36,South,184,0.0,0.0,89,0.00,,,0.00,Wunderground v.1.15,2013-08-25 06:16:00,
2013-08-25 02:18:00,52.7,49.5,30.36,South,184,0.0,0.0,89,0.00,,,0.00,Wunderground v.1.15,2013-08-25 06:18:00,
2013-08-25 02:21:00,52.6,49.8,30.36,South,184,0.0,0.0,90,0.00,,,0.00,Wunderground v.1.15,2013-08-25 06:21:00,
2013-08-25 02:22:00,52.6,49.8,30.36,South,184,0.0,0.0,90,0.00,,,0.00,Wunderground v.1.15,2013-08-25 06:22:00,
2013-08-25 02:23:00,52.6,49.8,30.36,South,184,0.0,0.0,90,0.00,,,0.00,Wunderground v.1.15,2013-08-25 06:23:00,
2013-08-25 02:25:00,52.5,49.7,30.36,South,184,0.0,0.0,90,0.00,,,0.00,Wunderground v.1.15,2013-08-25 06:25:00,
2013-08-25 02:27:00,52.5,49.7,30.36,South,184,0.0,0.0,90,0.00,,,0.00,Wunderground v.1.15,2013-08-25 06:27:00,
2013-08-25 02:28:00,52.4,49.6,30.36,South,184,0.0,0.0,90,0.00,,,0.00,Wunderground v.1.15,2013-08-25 06:28:00,
2013-08-25 02:30:00,52.4,49.3,30.36,South,184,0.0,1.0,89,0.00,,,0.00,Wunderground v.1.15,2013-08-25 06:30:00,
2013-08-25 02:32:00,52.4,49.3,30.36,South,184,0.0,1.0,89,0.00,,,0.00,Wunderground v.1.15,2013-08-25 06:32:00,
2013-08-25 02:33:00,52.3,49.2,30.36,South,184,0.0,1.0,89,0.00,,,0.00,Wunderground v.1.15,2013-08-25 06:33:00,
2013-08-25 02:36:00,52.3,49.2,30.36,South,184,0.0,0.0,89,0.00,,,0.00,Wunderground v.1.15,2013-08-25 06:36:00,
2013-08-25 02:37:00,52.3,49.2,30.36,South,184,0.0,0.0,89,0.00,,,0.00,Wunderground v.1.15,2013-08-25 06:37:00,
2013-08-25 02:38:00,52.2,49.1,30.36,South,184,0.0,1.0,89,0.00,,,0.00,Wunderground v.1.15,2013-08-25 06:38:00,
2013-08-25 02:41:00,52.2,49.1,30.35,South,184,0.0,1.0,89,0.00,,,0.00,Wunderground v.1.15,2013-08-25 06:41:00,
2013-08-25 02:42:00,52.2,49.1,30.35,South,184,1.0,1.0,89,0.00,,,0.00,Wunderground v.1.15,2013-08-25 06:42:00,
2013-08-25 02:43:00,52.2,49.1,30.35,South,184,0.0,1.0,89,0.00,,,0.00,Wunderground v.1.15,2013-08-25 06:43:00,
2013-08-25 02:44:00,52.2,49.1,30.35,South,184,1.0,1.0,89,0.00,,,0.00,Wunderground v.1.15,2013-08-25 06:44:00,
2013-08-25 02:46:00,52.1,49.0,30.36,South,184,0.0,0.0,89,0.00,,,0.00,Wunderground v.1.15,2013-08-25 06:46:00,
2013-08-25 02:47:00,52.1,49.3,30.35,South,184,1.0,1.0,90,0.00,,,0.00,Wunderground v.1.15,2013-08-25 06:47:00,
2013-08-25 02:48:00,52.1,49.3,30.35,South,184,0.0,1.0,90,0.00,,,0.00,Wunderground v.1.15,2013-08-25 06:48:00,
2013-08-25 02:49:00,52.1,49.3,30.35,South,184,0.0,1.0,90,0.00,,,0.00,Wunderground v.1.15,2013-08-25 06:49:00,
2013-08-25 02:52:00,52.1,49.3,30.35,South,184,0.0,1.0,90,0.00,,,0.00,Wunderground v.1.15,2013-08-25 06:52:00,
2013-08-25 02:53:00,52.0,49.2,30.35,South,184,0.0,1.0,90,0.00,,,0.00,Wunderground v.1.15,2013-08-25 06:53:00,
2013-08-25 02:54:00,52.0,49.2,30.35,South,184,0.0,1.0,90,0.00,,,0.00,Wunderground v.1.15,2013-08-25 06:54:00,
2013-08-25 02:57:00,52.0,49.2,30.35,South,184,0.0,0.0,90,0.00,,,0.00,Wunderground v.1.15,2013-08-25 06:57:00,
2013-08-25 02:58:00,52.0,49.2,30.35,South,184,0.0,0.0,90,0.00,,,0.00,Wunderground v.1.15,2013-08-25 06:58:00,
2013-08-25 02:59:00,52.0,49.2,30.35,South,184,0.0,0.0,90,0.00,,,0.00,Wunderground v.1.15,2013-08-25 06:59:00,
2013-08-25 03:02:00,51.9,49.1,30.35,South,184,0.0,0.0,90,0.00,,,0.00,Wunderground v.1.15,2013-08-25 07:02:00,
2013-08-25 03:03:00,51.9,49.1,30.35,South,184,1.0,1.0,90,0.00,,,0.00,Wunderground v.1.15,2013-08-25 07:03:00,
2013-08-25 03:04:00,51.9,49.1,30.35,South,184,0.0,1.0,90,0.00,,,0.00,Wunderground v.1.15,2013-08-25 07:04:00,
2013-08-25 03:07:00,51.9,49.1,30.35,South,184,0.0,2.0,90,0.00,,,0.00,Wunderground v.1.15,2013-08-25 07:07:00,
2013-08-25 03:08:00,51.9,49.1,30.35,South,184,0.0,2.0,90,0.00,,,0.00,Wunderground v.1.15,2013-08-25 07:08:00,
2013-08-25 03:09:00,51.9,49.1,30.35,South,184,0.0,2.0,90,0.00,,,0.00,Wunderground v.1.15,2013-08-25 07:09:00,
2013-08-25 03:10:00,51.9,49.1,30.35,South,184,0.0,2.0,90,0.00,,,0.00,Wunderground v.1.15,2013-08-25 07:10:00,
2013-08-25 03:13:00,51.9,49.1,30.35,South,184,0.0,2.0,90,0.00,,,0.00,Wunderground v.1.15,2013-08-25 07:13:00,
2013-08-25 03:14:00,51.9,49.1,30.35,South,184,0.0,2.0,90,0.00,,,0.00,Wunderground v.1.15,2013-08-25 07:14:00,
2013-08-25 03:15:00,51.9,49.1,30.35,South,184,0.0,2.0,90,0.00,,,0.00,Wunderground v.1.15,2013-08-25 07:15:00,
2013-08-25 03:18:00,51.8,49.0,30.35,South,184,0.0,1.0,90,0.00,,,0.00,Wunderground v.1.15,2013-08-25 07:18:00,
2013-08-25 03:19:00,51.8,49.0,30.35,South,184,0.0,1.0,90,0.00,,,0.00,Wunderground v.1.15,2013-08-25 07:19:00,
2013-08-25 03:21:00,51.8,49.0,30.35,South,184,0.0,1.0,90,0.00,,,0.00,Wunderground v.1.15,2013-08-25 07:21:00,
2013-08-25 03:23:00,51.7,48.9,30.35,South,184,0.0,1.0,90,0.00,,,0.00,Wunderground v.1.15,2013-08-25 07:23:00,
2013-08-25 03:24:00,51.7,48.9,30.35,South,184,0.0,1.0,90,0.00,,,0.00,Wunderground v.1.15,2013-08-25 07:24:00,
2013-08-25 03:26:00,51.7,48.6,30.35,South,184,0.0,0.0,89,0.00,,,0.00,Wunderground v.1.15,2013-08-25 07:26:00,
2013-08-25 03:28:00,51.7,48.6,30.35,South,184,1.0,1.0,89,0.00,,,0.00,Wunderground v.1.15,2013-08-25 07:28:00,
2013-08-25 03:29:00,51.7,48.6,30.35,South,184,0.0,1.0,89,0.00,,,0.00,Wunderground v.1.15,2013-08-25 07:29:00,
2013-08-25 03:32:00,51.7,48.6,30.35,South,184,0.0,1.0,89,0.00,,,0.00,Wunderground v.1.15,2013-08-25 07:32:00,
2013-08-25 03:34:00,51.6,48.5,30.35,South,184,0.0,1.0,89,0.00,,,0.00,Wunderground v.1.15,2013-08-25 07:34:00,
2013-08-25 03:37:00,51.6,48.5,30.35,South,184,0.0,0.0,89,0.00,,,0.00,Wunderground v.1.15,2013-08-25 07:37:00,
2013-08-25 03:39:00,51.5,48.4,30.35,South,184,0.0,1.0,89,0.00,,,0.00,Wunderground v.1.15,2013-08-25 07:39:00,
2013-08-25 03:42:00,51.4,48.6,30.35,South,184,0.0,1.0,90,0.00,,,0.00,Wunderground v.1.15,2013-08-25 07:42:00,
2013-08-25 03:44:00,51.4,48.6,30.35,South,184,0.0,1.0,90,0.00,,,0.00,Wunderground v.1.15,2013-08-25 07:44:00,
2013-08-25 03:45:00,51.4,48.6,30.35,South,184,0.0,1.0,90,0.00,,,0.00,Wunderground v.1.15,2013-08-25 07:45:00,
2013-08-25 03:47:00,51.3,48.5,30.35,South,184,0.0,0.0,90,0.00,,,0.00,Wunderground v.1.15,2013-08-25 07:47:00,
2013-08-25 03:49:00,51.3,48.5,30.35,South,184,0.0,1.0,90,0.00,,,0.00,Wunderground v.1.15,2013-08-25 07:49:00,
2013-08-25 03:50:00,51.2,48.4,30.35,South,184,1.0,1.0,90,0.00,,,0.00,Wunderground v.1.15,2013-08-25 07:50:00,
2013-08-25 03:52:00,51.2,48.4,30.35,South,184,0.0,1.0,90,0.00,,,0.00,Wunderground v.1.15,2013-08-25 07:52:00,
2013-08-25 03:54:00,51.1,48.0,30.35,South,184,0.0,1.0,89,0.00,,,0.00,Wunderground v.1.15,2013-08-25 07:54:00,
2013-08-25 03:55:00,51.1,48.0,30.35,South,184,0.0,1.0,89,0.00,,,0.00,Wunderground v.1.15,2013-08-25 07:55:00,
2013-08-25 03:57:00,51.0,47.9,30.35,South,184,0.0,1.0,89,0.00,,,0.00,Wunderground v.1.15,2013-08-25 07:57:00,
2013-08-25 03:59:00,51.0,47.9,30.35,South,184,0.0,1.0,89,0.00,,,0.00,Wunderground v.1.15,2013-08-25 07:59:00,
2013-08-25 04:00:00,51.0,47.9,30.35,South,184,0.0,1.0,89,0.00,,,0.00,Wunderground v.1.15,2013-08-25 08:00:00,
2013-08-25 04:02:00,51.0,47.9,30.35,South,184,0.0,1.0,89,0.00,,,0.00,Wunderground v.1.15,2013-08-25 08:02:00,
2013-08-25 04:05:00,50.9,47.8,30.35,South,184,0.0,1.0,89,0.00,,,0.00,Wunderground v.1.15,2013-08-25 08:05:00,
2013-08-25 04:07:00,50.9,47.8,30.35,South,184,0.0,0.0,89,0.00,,,0.00,Wunderground v.1.15,2013-08-25 08:07:00,
2013-08-25 04:10:00,50.9,47.8,30.35,South,184,0.0,0.0,89,0.00,,,0.00,Wunderground v.1.15,2013-08-25 08:10:00,
2013-08-25 04:12:00,50.9,47.8,30.36,South,184,0.0,1.0,89,0.00,,,0.00,Wunderground v.1.15,2013-08-25 08:12:00,
2013-08-25 04:15:00,50.9,47.8,30.36,South,184,0.0,1.0,89,0.00,,,0.00,Wunderground v.1.15,2013-08-25 08:15:00,
2013-08-25 04:18:00,51.0,47.9,30.36,South,184,0.0,1.0,89,0.00,,,0.00,Wunderground v.1.15,2013-08-25 08:18:00,
2013-08-25 04:20:00,51.0,47.9,30.36,South,184,0.0,1.0,89,0.00,,,0.00,Wunderground v.1.15,2013-08-25 08:20:00,
2013-08-25 04:21:00,51.1,48.0,30.36,South,184,0.0,1.0,89,0.00,,,0.00,Wunderground v.1.15,2013-08-25 08:21:00,
2013-08-25 04:23:00,51.3,48.2,30.36,South,184,0.0,1.0,89,0.00,,,0.00,Wunderground v.1.15,2013-08-25 08:23:00,
2013-08-25 04:25:00,51.3,48.2,30.36,South,184,1.0,1.0,89,0.00,,,0.00,Wunderground v.1.15,2013-08-25 08:25:00,
2013-08-25 04:26:00,51.3,48.2,30.36,South,184,0.0,1.0,89,0.00,,,0.00,Wunderground v.1.15,2013-08-25 08:26:00,
2013-08-25 04:28:00,51.5,48.1,30.36,South,184,0.0,1.0,88,0.00,,,0.00,Wunderground v.1.15,2013-08-25 08:28:00,
2013-08-25 04:30:00,51.6,48.2,30.36,South,184,1.0,1.0,88,0.00,,,0.00,Wunderground v.1.15,2013-08-25 08:30:00,
2013-08-25 04:31:00,51.7,48.3,30.36,South,184,0.0,1.0,88,0.00,,,0.00,Wunderground v.1.15,2013-08-25 08:31:00,
2013-08-25 04:33:00,51.8,48.4,30.36,South,184,1.0,1.0,88,0.00,,,0.00,Wunderground v.1.15,2013-08-25 08:33:00,
2013-08-25 04:35:00,51.9,48.5,30.36,South,184,0.0,2.0,88,0.00,,,0.00,Wunderground v.1.15,2013-08-25 08:35:00,
2013-08-25 04:36:00,52.0,48.6,30.36,South,184,0.0,0.0,88,0.00,,,0.00,Wunderground v.1.15,2013-08-25 08:36:00,
2013-08-25 04:37:00,52.0,48.6,30.36,South,184,0.0,0.0,88,0.00,,,0.00,Wunderground v.1.15,2013-08-25 08:37:00,
2013-08-25 04:39:00,52.1,48.7,30.36,South,184,0.0,1.0,88,0.00,,,0.00,Wunderground v.1.15,2013-08-25 08:39:00,
2013-08-25 04:40:00,52.1,48.7,30.36,South,184,1.0,2.0,88,0.00,,,0.00,Wunderground v.1.15,2013-08-25 08:40:00,
2013-08-25 04:41:00,52.1,48.7,30.36,South,185,2.0,2.0,88,0.00,,,0.00,Wunderground v.1.15,2013-08-25 08:41:00,
2013-08-25 04:42:00,52.2,49.1,30.36,South,190,2.0,2.0,89,0.00,,,0.00,Wunderground v.1.15,2013-08-25 08:42:00,
2013-08-25 04:44:00,52.5,49.0,30.36,SSW,192,0.0,2.0,88,0.00,,,0.00,Wunderground v.1.15,2013-08-25 08:44:00,
2013-08-25 04:45:00,52.6,49.1,30.36,NW,317,0.0,3.0,88,0.00,,,0.00,Wunderground v.1.15,2013-08-25 08:45:00,
2013-08-25 04:46:00,52.6,49.1,30.36,NW,317,1.0,2.0,88,0.00,,,0.00,Wunderground v.1.15,2013-08-25 08:46:00,
2013-08-25 04:47:00,52.7,49.2,30.36,NW,317,2.0,2.0,88,0.00,,,0.00,Wunderground v.1.15,2013-08-25 08:47:00,
2013-08-25 04:49:00,53.0,49.5,30.36,NNW,342,1.0,3.0,88,0.00,,,0.00,Wunderground v.1.15,2013-08-25 08:49:00,
2013-08-25 04:50:00,53.1,49.6,30.36,NNW,342,0.0,3.0,88,0.00,,,0.00,Wunderground v.1.15,2013-08-25 08:50:00,
2013-08-25 04:51:00,53.2,49.7,30.36,NNW,342,2.0,3.0,88,0.00,,,0.00,Wunderground v.1.15,2013-08-25 08:51:00,
2013-08-25 04:52:00,53.3,49.8,30.36,NW,321,1.0,4.0,88,0.00,,,0.00,Wunderground v.1.15,2013-08-25 08:52:00,
2013-08-25 04:54:00,53.6,50.4,30.37,NW,321,3.0,4.0,89,0.00,,,0.00,Wunderground v.1.15,2013-08-25 08:54:00,
2013-08-25 04:55:00,53.8,50.6,30.37,NW,321,0.0,4.0,89,0.00,,,0.00,Wunderground v.1.15,2013-08-25 08:55:00,
2013-08-25 04:56:00,53.9,50.7,30.37,NW,321,0.0,1.0,89,0.00,,,0.00,Wunderground v.1.15,2013-08-25 08:56:00,
2013-08-25 04:57:00,54.0,50.8,30.37,NW,321,1.0,3.0,89,0.00,,,0.00,Wunderground v.1.15,2013-08-25 08:57:00,
2013-08-25 04:58:00,54.0,50.8,30.37,NW,321,1.0,3.0,89,0.00,,,0.00,Wunderground v.1.15,2013-08-25 08:58:00,
2013-08-25 04:59:00,54.1,50.9,30.37,NW,321,0.0,3.0,89,0.00,,,0.00,Wunderground v.1.15,2013-08-25 08:59:00,
2013-08-25 05:01:00,54.2,51.3,30.37,NW,319,2.0,4.0,90,0.00,,,0.00,Wunderground v.1.15,2013-08-25 09:01:00,
2013-08-25 05:02:00,54.3,51.4,30.37,NW,319,0.0,4.0,90,0.00,,,0.00,Wunderground v.1.15,2013-08-25 09:02:00,
2013-08-25 05:03:00,54.3,51.4,30.37,NW,319,1.0,4.0,90,0.00,,,0.00,Wunderground v.1.15,2013-08-25 09:03:00,
2013-08-25 05:04:00,54.4,51.5,30.37,NW,319,0.0,4.0,90,0.00,,,0.00,Wunderground v.1.15,2013-08-25 09:04:00,
2013-08-25 05:06:00,54.5,51.6,30.37,NNW,338,1.0,5.0,90,0.00,,,0.00,Wunderground v.1.15,2013-08-25 09:06:00,
2013-08-25 05:07:00,54.6,51.4,30.37,NNW,338,0.0,1.0,89,0.00,,,0.00,Wunderground v.1.15,2013-08-25 09:07:00,
2013-08-25 05:08:00,54.6,51.7,30.37,NNW,338,0.0,1.0,90,0.00,,,0.00,Wunderground v.1.15,2013-08-25 09:08:00,
2013-08-25 05:09:00,54.7,51.5,30.37,NNW,340,3.0,3.0,89,0.00,,,0.00,Wunderground v.1.15,2013-08-25 09:09:00,
2013-08-25 05:11:00,54.8,51.6,30.37,NNW,335,0.0,4.0,89,0.00,,,0.00,Wunderground v.1.15,2013-08-25 09:11:00,
2013-08-25 05:12:00,54.8,51.6,30.37,NNW,333,1.0,4.0,89,0.00,,,0.00,Wunderground v.1.15,2013-08-25 09:12:00,
2013-08-25 05:13:00,54.9,51.7,30.37,NNW,332,2.0,4.0,89,0.00,,,0.00,Wunderground v.1.15,2013-08-25 09:13:00,
2013-08-25 05:15:00,55.0,51.8,30.37,North,5,1.0,5.0,89,0.00,,,0.00,Wunderground v.1.15,2013-08-25 09:15:00,
2013-08-25 05:16:00,55.1,51.9,30.37,North,9,1.0,1.0,89,0.00,,,0.00,Wunderground v.1.15,2013-08-25 09:16:00,
2013-08-25 05:17:00,55.1,51.9,30.37,North,9,2.0,3.0,89,0.00,,,0.00,Wunderground v.1.15,2013-08-25 09:17:00,
2013-08-25 05:18:00,55.1,51.9,30.37,NW,325,1.0,5.0,89,0.00,,,0.00,Wunderground v.1.15,2013-08-25 09:18:00,
2013-08-25 05:19:00,55.2,52.0,30.37,NW,325,2.0,5.0,89,0.00,,,0.00,Wunderground v.1.15,2013-08-25 09:19:00,
2013-08-25 05:20:00,55.2,52.0,30.37,WNW,296,3.0,5.0,89,0.00,,,0.00,Wunderground v.1.15,2013-08-25 09:20:00,
2013-08-25 05:21:00,55.2,51.7,30.37,WNW,298,4.0,5.0,88,0.00,,,0.00,Wunderground v.1.15,2013-08-25 09:21:00,
2013-08-25 05:22:00,55.3,51.8,30.37,NW,306,1.0,5.0,88,0.00,,,0.00,Wunderground v.1.15,2013-08-25 09:22:00,
2013-08-25 05:23:00,55.3,51.8,30.38,NW,308,0.0,5.0,88,0.00,,,0.00,Wunderground v.1.15,2013-08-25 09:23:00,
2013-08-25 05:24:00,55.3,51.8,30.38,NW,308,0.0,5.0,88,0.00,,,0.00,Wunderground v.1.15,2013-08-25 09:24:00,
2013-08-25 05:25:00,55.3,51.8,30.38,NNW,328,3.0,5.0,88,0.00,,,0.00,Wunderground v.1.15,2013-08-25 09:25:00,
2013-08-25 05:27:00,55.3,51.8,30.38,NNW,327,3.0,4.0,88,0.00,,,0.00,Wunderground v.1.15,2013-08-25 09:27:00,
2013-08-25 05:28:00,55.3,51.8,30.38,NW,308,1.0,5.0,88,0.00,,,0.00,Wunderground v.1.15,2013-08-25 09:28:00,
2013-08-25 05:29:00,55.3,51.8,30.38,NW,309,1.0,5.0,88,0.00,,,0.00,Wunderground v.1.15,2013-08-25 09:29:00,
2013-08-25 05:30:00,55.3,51.8,30.38,NNW,328,1.0,5.0,88,0.00,,,0.00,Wunderground v.1.15,2013-08-25 09:30:00,
2013-08-25 05:32:00,55.3,51.8,30.38,NW,305,5.0,5.0,88,0.00,,,0.00,Wunderground v.1.15,2013-08-25 09:32:00,
2013-08-25 05:33:00,55.3,51.8,30.38,NW,312,3.0,5.0,88,0.00,,,0.00,Wunderground v.1.15,2013-08-25 09:33:00,
2013-08-25 05:34:00,55.3,51.8,30.38,NW,322,1.0,5.0,88,0.00,,,0.00,Wunderground v.1.15,2013-08-25 09:34:00,
2013-08-25 05:35:00,55.3,51.8,30.38,NW,322,2.0,5.0,88,0.00,,,0.00,Wunderground v.1.15,2013-08-25 09:35:00,
2013-08-25 05:37:00,55.2,51.7,30.38,NW,322,2.0,3.0,88,0.00,,,0.00,Wunderground v.1.15,2013-08-25 09:37:00,
2013-08-25 05:39:00,55.2,51.7,30.38,NW,307,2.0,3.0,88,0.00,,,0.00,Wunderground v.1.15,2013-08-25 09:39:00,
2013-08-25 05:40:00,55.2,51.7,30.38,NW,311,1.0,3.0,88,0.00,,,0.00,Wunderground v.1.15,2013-08-25 09:40:00,
2013-08-25 05:42:00,55.2,51.7,30.38,NNW,329,1.0,5.0,88,0.00,,,0.00,Wunderground v.1.15,2013-08-25 09:42:00,
2013-08-25 05:44:00,55.2,51.7,30.38,NW,319,1.0,5.0,88,0.00,,,0.00,Wunderground v.1.15,2013-08-25 09:44:00,
2013-08-25 05:45:00,55.1,51.6,30.38,NW,315,1.0,5.0,88,0.00,,,0.00,Wunderground v.1.15,2013-08-25 09:45:00,
2013-08-25 05:47:00,55.1,51.6,30.38,NW,316,2.0,5.0,88,0.00,,,0.00,Wunderground v.1.15,2013-08-25 09:47:00,
2013-08-25 05:48:00,55.1,51.6,30.38,NW,317,1.0,5.0,88,0.00,,,0.00,Wunderground v.1.15,2013-08-25 09:48:00,
2013-08-25 05:49:00,55.1,51.6,30.39,NNW,340,2.0,5.0,88,0.00,,,0.00,Wunderground v.1.15,2013-08-25 09:49:00,
2013-08-25 05:50:00,55.1,51.6,30.39,NNW,340,2.0,5.0,88,0.00,,,0.00,Wunderground v.1.15,2013-08-25 09:50:00,
2013-08-25 05:52:00,55.1,51.6,30.39,NW,321,1.0,5.0,88,0.00,,,0.00,Wunderground v.1.15,2013-08-25 09:52:00,
2013-08-25 05:53:00,55.1,51.6,30.38,NW,323,3.0,5.0,88,0.00,,,0.00,Wunderground v.1.15,2013-08-25 09:53:00,
2013-08-25 05:54:00,55.1,51.6,30.39,NNW,329,2.0,5.0,88,0.00,,,0.00,Wunderground v.1.15,2013-08-25 09:54:00,
2013-08-25 05:55:00,55.1,51.6,30.38,NW,316,1.0,5.0,88,0.00,,,0.00,Wunderground v.1.15,2013-08-25 09:55:00,
2013-08-25 05:57:00,55.1,51.3,30.38,NW,316,2.0,2.0,87,0.00,,,0.00,Wunderground v.1.15,2013-08-25 09:57:00,
2013-08-25 05:59:00,55.1,51.3,30.39,NW,317,2.0,3.0,87,0.00,,,0.00,Wunderground v.1.15,2013-08-25 09:59:00,
2013-08-25 06:00:00,55.1,51.3,30.39,WNW,300,4.0,4.0,87,0.00,,,0.00,Wunderground v.1.15,2013-08-25 10:00:00,
2013-08-25 06:01:00,55.1,51.6,30.39,NNW,333,5.0,7.0,88,0.00,,,0.00,Wunderground v.1.15,2013-08-25 10:01:00,
2013-08-25 06:02:00,55.1,51.6,30.39,NW,315,2.0,7.0,88,0.00,,,0.00,Wunderground v.1.15,2013-08-25 10:02:00,
2013-08-25 06:04:00,55.0,51.2,30.39,NNW,327,1.0,7.0,87,0.00,,,0.00,Wunderground v.1.15,2013-08-25 10:04:00,
2013-08-25 06:05:00,55.1,51.3,30.39,NW,320,2.0,8.0,87,0.00,,,0.00,Wunderground v.1.15,2013-08-25 10:05:00,
2013-08-25 06:06:00,55.1,51.3,30.39,NW,320,1.0,2.0,87,0.00,,,0.00,Wunderground v.1.15,2013-08-25 10:06:00,
2013-08-25 06:07:00,55.0,51.5,30.39,NW,306,2.0,4.0,88,0.00,,,0.00,Wunderground v.1.15,2013-08-25 10:07:00,
2013-08-25 06:09:00,55.0,51.2,30.39,NNW,346,2.0,5.0,87,0.00,,,0.00,Wunderground v.1.15,2013-08-25 10:09:00,
2013-08-25 06:10:00,55.0,51.5,30.39,NW,321,4.0,5.0,88,0.00,,,0.00,Wunderground v.1.15,2013-08-25 10:10:00,
2013-08-25 06:11:00,55.0,51.5,30.39,NW,317,5.0,8.0,88,0.00,,,0.00,Wunderground v.1.15,2013-08-25 10:11:00,
2013-08-25 06:12:00,55.0,51.5,30.40,NW,316,3.0,8.0,88,0.00,,,0.00,Wunderground v.1.15,2013-08-25 10:12:00,
2013-08-25 06:14:00,55.0,51.5,30.40,WNW,298,1.0,8.0,88,0.00,,,0.00,Wunderground v.1.15,2013-08-25 10:14:00,
2013-08-25 06:15:00,54.9,51.4,30.40,NW,325,1.0,8.0,88,0.00,,,0.00,Wunderground v.1.15,2013-08-25 10:15:00,
2013-08-25 06:16:00,54.9,51.4,30.40,WNW,297,2.0,3.0,88,0.00,,,0.00,Wunderground v.1.15,2013-08-25 10:16:00,
2013-08-25 06:17:00,54.8,51.3,30.40,NW,318,3.0,4.0,88,0.00,,,0.00,Wunderground v.1.15,2013-08-25 10:17:00,
2013-08-25 06:19:00,54.8,51.3,30.40,NW,318,1.0,5.0,88,0.00,,,0.00,Wunderground v.1.15,2013-08-25 10:19:00,
2013-08-25 06:20:00,54.8,51.3,30.40,NW,319,3.0,5.0,88,0.00,,,0.00,Wunderground v.1.15,2013-08-25 10:20:00,
2013-08-25 06:21:00,54.7,51.2,30.40,NW,315,1.0,5.0,88,0.00,,,0.00,Wunderground v.1.15,2013-08-25 10:21:00,
2013-08-25 06:22:00,54.6,51.1,30.40,NW,315,2.0,5.0,88,0.00,,,0.00,Wunderground v.1.15,2013-08-25 10:22:00,
2013-08-25 06:24:00,54.5,51.0,30.40,NNW,328,4.0,5.0,88,0.00,,,0.00,Wunderground v.1.15,2013-08-25 10:24:00,
2013-08-25 06:25:00,54.5,51.0,30.40,NNW,328,2.0,5.0,88,0.00,,,0.00,Wunderground v.1.15,2013-08-25 10:25:00,
2013-08-25 06:27:00,54.4,50.9,30.40,NNW,329,1.0,3.0,88,0.00,,,0.00,Wunderground v.1.15,2013-08-25 10:27:00,
2013-08-25 06:28:00,54.4,50.9,30.40,NNW,329,2.0,3.0,88,0.00,,,0.00,Wunderground v.1.15,2013-08-25 10:28:00,
2013-08-25 06:29:00,54.3,50.8,30.40,NW,310,2.0,4.0,88,0.00,,,0.00,Wunderground v.1.15,2013-08-25 10:29:00,
2013-08-25 06:30:00,54.2,50.7,30.40,NW,310,2.0,4.0,88,0.00,,,0.00,Wunderground v.1.15,2013-08-25 10:30:00,
2013-08-25 06:31:00,54.2,50.7,30.40,NW,317,1.0,4.0,88,0.00,,,0.00,Wunderground v.1.15,2013-08-25 10:31:00,
2013-08-25 06:32:00,54.2,50.7,30.40,NW,315,2.0,4.0,88,0.00,,,0.00,Wunderground v.1.15,2013-08-25 10:32:00,
2013-08-25 06:33:00,54.1,50.6,30.40,NW,315,3.0,4.0,88,0.00,,,0.00,Wunderground v.1.15,2013-08-25 10:33:00,
2013-08-25 06:34:00,54.1,50.6,30.40,NW,319,4.0,4.0,88,0.00,,,0.00,Wunderground v.1.15,2013-08-25 10:34:00,
2013-08-25 06:35:00,54.1,50.6,30.40,NNW,329,3.0,4.0,88,0.00,,,0.00,Wunderground v.1.15,2013-08-25 10:35:00,
2013-08-25 06:36:00,54.1,50.6,30.40,NNW,327,3.0,3.0,88,0.00,,,0.00,Wunderground v.1.15,2013-08-25 10:36:00,
2013-08-25 06:37:00,54.1,50.6,30.40,NW,319,1.0,4.0,88,0.00,,,0.00,Wunderground v.1.15,2013-08-25 10:37:00,
2013-08-25 06:38:00,54.1,50.9,30.40,NW,314,2.0,4.0,89,0.00,,,0.00,Wunderground v.1.15,2013-08-25 10:38:00,
2013-08-25 06:40:00,54.1,50.9,30.40,NW,322,1.0,4.0,89,0.00,,,0.00,Wunderground v.1.15,2013-08-25 10:40:00,
2013-08-25 06:41:00,54.1,50.9,30.40,NNW,347,2.0,5.0,89,0.00,,,0.00,Wunderground v.1.15,2013-08-25 10:41:00,
2013-08-25 06:42:00,54.2,51.0,30.41,NNW,327,2.0,5.0,89,0.00,,,0.00,Wunderground v.1.15,2013-08-25 10:42:00,
2013-08-25 06:43:00,54.2,51.0,30.41,NNW,336,3.0,5.0,89,0.00,,,0.00,Wunderground v.1.15,2013-08-25 10:43:00,
2013-08-25 06:45:00,54.3,51.1,30.41,NNW,335,0.0,5.0,89,0.00,,,0.00,Wunderground v.1.15,2013-08-25 10:45:00,
2013-08-25 06:46:00,54.4,51.2,30.41,NW,317,1.0,3.0,89,0.00,,,0.00,Wunderground v.1.15,2013-08-25 10:46:00,
2013-08-25 06:47:00,54.4,51.2,30.41,WNW,298,3.0,4.0,89,0.00,,,0.00,Wunderground v.1.15,2013-08-25 10:47:00,
2013-08-25 06:48:00,54.5,51.3,30.41,NW,325,2.0,4.0,89,0.00,,,0.00,Wunderground v.1.15,2013-08-25 10:48:00,
2013-08-25 06:50:00,54.6,51.4,30.41,NNW,327,2.0,6.0,89,0.00,,,0.00,Wunderground v.1.15,2013-08-25 10:50:00,
2013-08-25 06:51:00,54.7,51.5,30.41,NNW,335,4.0,6.0,89,0.00,,,0.00,Wunderground v.1.15,2013-08-25 10:51:00,
2013-08-25 06:52:00,54.8,51.6,30.41,NNW,331,2.0,6.0,89,0.00,,,0.00,Wunderground v.1.15,2013-08-25 10:52:00,
2013-08-25 06:53:00,54.9,51.4,30.41,NW,313,2.0,6.0,88,0.00,,,0.00,Wunderground v.1.15,2013-08-25 10:53:00,
2013-08-25 06:55:00,55.1,51.6,30.41,NNW,327,2.0,6.0,88,0.00,,,0.00,Wunderground v.1.15,2013-08-25 10:55:00,
2013-08-25 06:56:00,55.2,51.7,30.41,NW,320,5.0,6.0,88,0.00,,,0.00,Wunderground v.1.15,2013-08-25 10:56:00,
2013-08-25 06:57:00,55.3,51.8,30.41,NW,321,1.0,6.0,88,0.00,,,0.00,Wunderground v.1.15,2013-08-25 10:57:00,
2013-08-25 06:58:00,55.4,51.9,30.41,NW,321,2.0,6.0,88,0.00,,,0.00,Wunderground v.1.15,2013-08-25 10:58:00,
2013-08-25 07:00:00,55.5,52.0,30.41,North,349,0.0,6.0,88,0.00,,,0.01,Wunderground v.1.15,2013-08-25 11:00:00,
2013-08-25 07:01:00,55.5,52.0,30.41,North,355,1.0,6.0,88,0.00,,,0.01,Wunderground v.1.15,2013-08-25 11:01:00,
2013-08-25 07:02:00,55.5,52.0,30.41,North,355,1.0,6.0,88,0.00,,,0.01,Wunderground v.1.15,2013-08-25 11:02:00,
2013-08-25 07:04:00,55.6,52.1,30.41,NNW,330,1.0,6.0,88,0.00,,,0.01,Wunderground v.1.15,2013-08-25 11:04:00,
2013-08-25 07:05:00,55.7,52.2,30.41,NW,324,3.0,6.0,88,0.00,,,0.01,Wunderground v.1.15,2013-08-25 11:05:00,
2013-08-25 07:06:00,55.7,52.2,30.41,NNW,328,2.0,6.0,88,0.00,,,0.01,Wunderground v.1.15,2013-08-25 11:06:00,
2013-08-25 07:07:00,55.8,52.3,30.41,NW,317,2.0,4.0,88,0.00,,,0.01,Wunderground v.1.15,2013-08-25 11:07:00,
2013-08-25 07:09:00,55.9,52.1,30.41,NW,317,3.0,4.0,87,0.00,,,0.01,Wunderground v.1.15,2013-08-25 11:09:00,
2013-08-25 07:10:00,56.0,52.2,30.41,WNW,302,3.0,4.0,87,0.00,,,0.01,Wunderground v.1.15,2013-08-25 11:10:00,
2013-08-25 07:11:00,56.0,52.2,30.41,North,355,2.0,4.0,87,0.00,,,0.01,Wunderground v.1.15,2013-08-25 11:11:00,
2013-08-25 07:12:00,56.0,52.2,30.41,WNW,298,2.0,5.0,87,0.00,,,0.01,Wunderground v.1.15,2013-08-25 11:12:00,
2013-08-25 07:14:00,56.2,52.4,30.41,NNW,328,2.0,5.0,87,0.00,,,0.01,Wunderground v.1.15,2013-08-25 11:14:00,
2013-08-25 07:15:00,56.3,52.5,30.41,NW,324,3.0,5.0,87,0.00,,,0.01,Wunderground v.1.15,2013-08-25 11:15:00,
2013-08-25 07:16:00,56.3,52.5,30.41,NNW,329,3.0,3.0,87,0.00,,,0.01,Wunderground v.1.15,2013-08-25 11:16:00,
2013-08-25 07:17:00,56.4,52.6,30.41,NW,316,3.0,3.0,87,0.00,,,0.01,Wunderground v.1.15,2013-08-25 11:17:00,
2013-08-25 07:19:00,56.6,52.8,30.40,North,351,0.0,5.0,87,0.00,,,0.01,Wunderground v.1.15,2013-08-25 11:19:00,
2013-08-25 07:21:00,56.6,52.8,30.40,NNW,336,1.0,5.0,87,0.00,,,0.01,Wunderground v.1.15,2013-08-25 11:21:00,
2013-08-25 07:22:00,56.7,52.9,30.40,NNW,334,5.0,5.0,87,0.00,,,0.01,Wunderground v.1.15,2013-08-25 11:22:00,
2013-08-25 07:24:00,56.8,53.0,30.40,NW,326,4.0,5.0,87,0.00,,,0.01,Wunderground v.1.15,2013-08-25 11:24:00,
2013-08-25 07:26:00,57.0,53.2,30.41,NW,315,3.0,5.0,87,0.00,,,0.01,Wunderground v.1.15,2013-08-25 11:26:00,
2013-08-25 07:27:00,57.0,53.2,30.41,NW,310,10.0,10.0,87,0.00,,,0.01,Wunderground v.1.15,2013-08-25 11:27:00,
2013-08-25 07:28:00,57.1,53.0,30.41,NNW,339,5.0,10.0,86,0.00,,,0.01,Wunderground v.1.15,2013-08-25 11:28:00,
2013-08-25 07:30:00,57.3,53.1,30.41,WNW,300,5.0,10.0,86,0.00,,,0.01,Wunderground v.1.15,2013-08-25 11:30:00,
2013-08-25 07:32:00,57.5,53.3,30.41,NW,325,3.0,10.0,86,0.00,,,0.01,Wunderground v.1.15,2013-08-25 11:32:00,
2013-08-25 07:33:00,57.6,53.4,30.41,NW,314,2.0,10.0,86,0.00,,,0.01,Wunderground v.1.15,2013-08-25 11:33:00,
2013-08-25 07:35:00,57.7,53.5,30.41,NW,325,5.0,10.0,86,0.00,,,0.01,Wunderground v.1.15,2013-08-25 11:35:00,
2013-08-25 07:37:00,57.8,53.6,30.41,NW,306,4.0,5.0,86,0.00,,,0.01,Wunderground v.1.15,2013-08-25 11:37:00,
2013-08-25 07:38:00,58.0,53.8,30.41,WNW,301,2.0,5.0,86,0.00,,,0.01,Wunderground v.1.15,2013-08-25 11:38:00,
2013-08-25 07:40:00,58.1,53.6,30.41,NW,316,5.0,7.0,85,0.00,,,0.01,Wunderground v.1.15,2013-08-25 11:40:00,
2013-08-25 07:42:00,58.3,53.8,30.41,WNW,297,3.0,7.0,85,0.00,,,0.01,Wunderground v.1.15,2013-08-25 11:42:00,
2013-08-25 07:43:00,58.4,53.9,30.41,NNW,332,2.0,7.0,85,0.00,,,0.01,Wunderground v.1.15,2013-08-25 11:43:00,
2013-08-25 07:45:00,58.5,54.0,30.41,NW,317,5.0,7.0,85,0.00,,,0.01,Wunderground v.1.15,2013-08-25 11:45:00,
2013-08-25 07:47:00,58.7,54.2,30.41,NW,326,2.0,5.0,85,0.00,,,0.01,Wunderground v.1.15,2013-08-25 11:47:00,
2013-08-25 07:48:00,58.8,54.3,30.41,NW,305,4.0,6.0,85,0.00,,,0.01,Wunderground v.1.15,2013-08-25 11:48:00,
2013-08-25 07:50:00,59.0,54.2,30.41,NW,308,3.0,6.0,84,0.00,,,0.01,Wunderground v.1.15,2013-08-25 11:50:00,
2013-08-25 07:52:00,59.1,54.3,30.41,NW,317,3.0,6.0,84,0.00,,,0.01,Wunderground v.1.15,2013-08-25 11:52:00,
2013-08-25 07:53:00,59.3,54.5,30.41,NW,315,3.0,6.0,84,0.00,,,0.01,Wunderground v.1.15,2013-08-25 11:53:00,
2013-08-25 07:56:00,59.4,54.6,30.41,WNW,298,1.0,7.0,84,0.00,,,0.01,Wunderground v.1.15,2013-08-25 11:56:00,
2013-08-25 07:57:00,59.5,54.7,30.41,NW,323,0.0,4.0,84,0.00,,,0.01,Wunderground v.1.15,2013-08-25 11:57:00,
2013-08-25 07:59:00,59.7,54.9,30.41,NW,323,2.0,5.0,84,0.00,,,0.01,Wunderground v.1.15,2013-08-25 11:59:00,
2013-08-25 08:01:00,59.9,54.7,30.41,NW,304,5.0,8.0,83,0.00,,,0.01,Wunderground v.1.15,2013-08-25 12:01:00,
2013-08-25 08:02:00,60.0,54.8,30.41,NNW,346,1.0,8.0,83,0.00,,,0.01,Wunderground v.1.15,2013-08-25 12:02:00,
2013-08-25 08:04:00,60.2,55.0,30.41,NW,317,5.0,8.0,83,0.00,,,0.01,Wunderground v.1.15,2013-08-25 12:04:00,
2013-08-25 08:06:00,60.4,55.2,30.41,NW,320,2.0,8.0,83,0.00,,,0.01,Wunderground v.1.15,2013-08-25 12:06:00,
2013-08-25 08:07:00,60.5,55.3,30.41,NNW,329,4.0,5.0,83,0.00,,,0.01,Wunderground v.1.15,2013-08-25 12:07:00,
2013-08-25 08:08:00,60.5,55.3,30.41,NW,323,2.0,5.0,83,0.00,,,0.01,Wunderground v.1.15,2013-08-25 12:08:00,
2013-08-25 08:09:00,60.7,55.5,30.41,West,274,3.0,8.0,83,0.00,,,0.01,Wunderground v.1.15,2013-08-25 12:09:00,
2013-08-25 08:11:00,60.8,55.3,30.41,NNW,331,3.0,8.0,82,0.00,,,0.01,Wunderground v.1.15,2013-08-25 12:11:00,
2013-08-25 08:12:00,60.9,55.4,30.41,NNW,333,2.0,8.0,82,0.00,,,0.01,Wunderground v.1.15,2013-08-25 12:12:00,
2013-08-25 08:13:00,61.0,55.5,30.41,WNW,292,4.0,8.0,82,0.00,,,0.01,Wunderground v.1.15,2013-08-25 12:13:00,
2013-08-25 08:14:00,61.1,55.6,30.41,WNW,286,3.0,8.0,82,0.00,,,0.01,Wunderground v.1.15,2013-08-25 12:14:00,
2013-08-25 08:16:00,61.3,55.8,30.41,WNW,294,3.0,3.0,82,0.00,,,0.01,Wunderground v.1.15,2013-08-25 12:16:00,
2013-08-25 08:17:00,61.5,56.0,30.41,WNW,294,1.0,3.0,82,0.00,,,0.01,Wunderground v.1.15,2013-08-25 12:17:00,
2013-08-25 08:18:00,61.6,56.0,30.41,WNW,294,1.0,3.0,82,0.00,,,0.01,Wunderground v.1.15,2013-08-25 12:18:00,
2013-08-25 08:19:00,61.7,56.1,30.41,WNW,295,1.0,3.0,82,0.00,,,0.01,Wunderground v.1.15,2013-08-25 12:19:00,
2013-08-25 08:21:00,62.0,56.1,30.41,WNW,295,2.0,3.0,81,0.00,,,0.01,Wunderground v.1.15,2013-08-25 12:21:00,
2013-08-25 08:22:00,62.2,56.3,30.41,WNW,295,2.0,3.0,81,0.00,,,0.01,Wunderground v.1.15,2013-08-25 12:22:00,
2013-08-25 08:23:00,62.2,56.3,30.41,WNW,294,1.0,3.0,81,0.00,,,0.01,Wunderground v.1.15,2013-08-25 12:23:00,
2013-08-25 08:24:00,62.3,56.4,30.41,WNW,294,2.0,3.0,81,0.00,,,0.01,Wunderground v.1.15,2013-08-25 12:24:00,
2013-08-25 08:25:00,62.4,56.5,30.41,WNW,288,0.0,3.0,81,0.00,,,0.01,Wunderground v.1.15,2013-08-25 12:25:00,
2013-08-25 08:26:00,62.6,56.7,30.41,WNW,302,1.0,1.0,81,0.00,,,0.01,Wunderground v.1.15,2013-08-25 12:26:00,
2013-08-25 08:27:00,62.7,56.8,30.41,NW,317,1.0,4.0,81,0.00,,,0.01,Wunderground v.1.15,2013-08-25 12:27:00,
2013-08-25 08:28:00,62.8,56.9,30.41,WNW,302,3.0,4.0,81,0.00,,,0.01,Wunderground v.1.15,2013-08-25 12:28:00,
2013-08-25 08:29:00,62.9,56.6,30.41,NW,325,2.0,5.0,80,0.00,,,0.01,Wunderground v.1.15,2013-08-25 12:29:00,
2013-08-25 08:30:00,63.0,56.7,30.41,NW,318,1.0,5.0,80,0.00,,,0.01,Wunderground v.1.15,2013-08-25 12:30:00,
2013-08-25 08:31:00,63.1,56.8,30.41,West,271,4.0,6.0,80,0.00,,,0.01,Wunderground v.1.15,2013-08-25 12:31:00,
2013-08-25 08:33:00,63.2,56.9,30.41,NW,313,2.0,6.0,80,0.00,,,0.01,Wunderground v.1.15,2013-08-25 12:33:00,
2013-08-25 08:34:00,63.3,57.0,30.41,NW,313,0.0,6.0,80,0.00,,,0.01,Wunderground v.1.15,2013-08-25 12:34:00,
2013-08-25 08:35:00,63.4,57.1,30.41,NW,313,0.0,6.0,80,0.00,,,0.01,Wunderground v.1.15,2013-08-25 12:35:00,
2013-08-25 08:37:00,63.7,57.4,30.41,NW,313,0.0,2.0,80,0.00,,,0.01,Wunderground v.1.15,2013-08-25 12:37:00,
2013-08-25 08:38:00,63.9,57.3,30.41,NW,313,0.0,2.0,79,0.00,,,0.01,Wunderground v.1.15,2013-08-25 12:38:00,
2013-08-25 08:39:00,64.1,57.5,30.41,NW,313,0.0,2.0,79,0.00,,,0.01,Wunderground v.1.15,2013-08-25 12:39:00,
2013-08-25 08:40:00,64.3,57.6,30.41,NW,313,0.0,2.0,79,0.00,,,0.01,Wunderground v.1.15,2013-08-25 12:40:00,
2013-08-25 08:42:00,64.8,57.8,30.41,NW,313,0.0,2.0,78,0.00,,,0.01,Wunderground v.1.15,2013-08-25 12:42:00,
2013-08-25 08:43:00,65.0,58.0,30.41,NW,313,0.0,2.0,78,0.00,,,0.01,Wunderground v.1.15,2013-08-25 12:43:00,
2013-08-25 08:44:00,65.0,58.0,30.41,NW,313,0.0,2.0,78,0.00,,,0.01,Wunderground v.1.15,2013-08-25 12:44:00,
2013-08-25 08:45:00,65.3,57.9,30.41,NW,313,0.0,2.0,77,0.00,,,0.01,Wunderground v.1.15,2013-08-25 12:45:00,
2013-08-25 08:47:00,65.9,58.1,30.41,NW,313,1.0,1.0,76,0.00,,,0.01,Wunderground v.1.15,2013-08-25 12:47:00,
2013-08-25 08:49:00,66.2,58.0,30.41,NW,313,0.0,1.0,75,0.00,,,0.01,Wunderground v.1.15,2013-08-25 12:49:00,
2013-08-25 08:50:00,66.5,58.3,30.41,NW,313,1.0,1.0,75,0.00,,,0.01,Wunderground v.1.15,2013-08-25 12:50:00,
2013-08-25 08:53:00,67.0,58.1,30.41,NW,313,2.0,3.0,73,0.00,,,0.01,Wunderground v.1.15,2013-08-25 12:53:00,
2013-08-25 08:54:00,67.0,58.1,30.41,NW,313,3.0,3.0,73,0.00,,,0.01,Wunderground v.1.15,2013-08-25 12:54:00,
2013-08-25 08:55:00,66.9,58.0,30.41,NW,313,1.0,3.0,73,0.00,,,0.01,Wunderground v.1.15,2013-08-25 12:55:00,
2013-08-25 08:58:00,66.6,57.7,30.41,NW,313,1.0,3.0,73,0.00,,,0.01,Wunderground v.1.15,2013-08-25 12:58:00,
2013-08-25 08:59:00,66.6,57.7,30.41,NW,313,1.0,3.0,73,0.00,,,0.01,Wunderground v.1.15,2013-08-25 12:59:00,
2013-08-25 09:00:00,66.6,58.1,30.41,NW,313,0.0,3.0,74,0.00,,,0.01,Wunderground v.1.15,2013-08-25 13:00:00,
2013-08-25 09:03:00,66.7,58.1,30.41,WNW,302,2.0,3.0,74,0.00,,,0.01,Wunderground v.1.15,2013-08-25 13:03:00,
2013-08-25 09:04:00,66.7,57.0,30.40,WNW,302,1.0,3.0,71,0.00,,,0.01,Wunderground v.1.15,2013-08-25 13:04:00,
2013-08-25 09:05:00,66.7,57.0,30.40,WNW,302,1.0,3.0,71,0.00,,,0.01,Wunderground v.1.15,2013-08-25 13:05:00,
2013-08-25 09:09:00,67.2,57.9,30.40,WNW,302,0.0,1.0,72,0.00,,,0.01,Wunderground v.1.15,2013-08-25 13:09:00,
2013-08-25 09:10:00,67.5,58.2,30.40,WNW,302,0.0,1.0,72,0.00,,,0.01,Wunderground v.1.15,2013-08-25 13:10:00,
2013-08-25 09:11:00,67.6,58.6,30.40,WNW,302,0.0,1.0,73,0.00,,,0.01,Wunderground v.1.15,2013-08-25 13:11:00,
2013-08-25 09:14:00,68.0,58.2,30.40,WNW,302,0.0,1.0,71,0.00,,,0.01,Wunderground v.1.15,2013-08-25 13:14:00,
2013-08-25 09:15:00,68.2,58.4,30.40,WNW,302,1.0,1.0,71,0.00,,,0.01,Wunderground v.1.15,2013-08-25 13:15:00,
2013-08-25 09:16:00,68.4,58.6,30.40,WNW,302,0.0,1.0,71,0.00,,,0.01,Wunderground v.1.15,2013-08-25 13:16:00,
2013-08-25 09:19:00,68.5,57.9,30.40,NW,304,0.0,4.0,69,0.00,,,0.01,Wunderground v.1.15,2013-08-25 13:19:00,
2013-08-25 09:20:00,68.6,58.4,30.40,NW,304,2.0,4.0,70,0.00,,,0.01,Wunderground v.1.15,2013-08-25 13:20:00,
2013-08-25 09:21:00,68.7,57.7,30.41,NW,304,1.0,4.0,68,0.00,,,0.01,Wunderground v.1.15,2013-08-25 13:21:00,
2013-08-25 09:24:00,68.9,58.3,30.40,NW,304,2.0,4.0,69,0.00,,,0.01,Wunderground v.1.15,2013-08-25 13:24:00,
2013-08-25 09:25:00,69.0,59.2,30.40,NW,304,2.0,4.0,71,0.00,,,0.01,Wunderground v.1.15,2013-08-25 13:25:00,
2013-08-25 09:26:00,69.1,58.9,30.40,NW,304,1.0,2.0,70,0.00,,,0.01,Wunderground v.1.15,2013-08-25 13:26:00,
2013-08-25 09:29:00,69.1,58.9,30.40,NW,304,1.0,2.0,70,0.00,,,0.01,Wunderground v.1.15,2013-08-25 13:29:00,
2013-08-25 09:30:00,69.2,59.0,30.40,NW,304,1.0,2.0,70,0.00,,,0.01,Wunderground v.1.15,2013-08-25 13:30:00,
2013-08-25 09:32:00,69.4,59.6,30.40,NW,305,0.0,3.0,71,0.00,,,0.01,Wunderground v.1.15,2013-08-25 13:32:00,
2013-08-25 09:34:00,69.7,59.5,30.40,NW,305,0.0,3.0,70,0.00,,,0.01,Wunderground v.1.15,2013-08-25 13:34:00,
2013-08-25 09:35:00,69.9,60.1,30.40,NW,305,2.0,3.0,71,0.00,,,0.01,Wunderground v.1.15,2013-08-25 13:35:00,
2013-08-25 09:36:00,70.0,61.7,30.40,NW,305,1.0,3.0,75,0.00,,,0.01,Wunderground v.1.15,2013-08-25 13:36:00,
2013-08-25 09:37:00,70.1,59.0,30.41,WNW,298,0.0,3.0,68,0.00,,,0.01,Wunderground v.1.15,2013-08-25 13:37:00,
2013-08-25 09:39:00,70.5,61.0,30.40,WNW,298,1.0,3.0,72,0.00,,,0.01,Wunderground v.1.15,2013-08-25 13:39:00,
2013-08-25 09:40:00,71.0,64.5,30.40,WNW,298,1.0,3.0,80,0.00,,,0.01,Wunderground v.1.15,2013-08-25 13:40:00,
2013-08-25 09:41:00,71.0,60.3,30.40,WNW,298,0.0,3.0,69,0.00,,,0.01,Wunderground v.1.15,2013-08-25 13:41:00,
2013-08-25 09:42:00,71.7,64.5,30.40,WNW,298,2.0,3.0,78,0.00,,,0.01,Wunderground v.1.15,2013-08-25 13:42:00,
2013-08-25 09:44:00,72.5,64.5,30.41,WNW,298,1.0,3.0,76,0.00,,,0.01,Wunderground v.1.15,2013-08-25 13:44:00,
2013-08-25 09:45:00,72.8,61.2,30.40,WNW,298,1.0,3.0,67,0.00,,,0.01,Wunderground v.1.15,2013-08-25 13:45:00,
2013-08-25 09:46:00,72.9,61.3,30.41,WNW,298,0.0,1.0,67,0.00,,,0.01,Wunderground v.1.15,2013-08-25 13:46:00,
2013-08-25 09:47:00,73.5,65.1,30.41,WNW,298,1.0,1.0,75,0.00,,,0.01,Wunderground v.1.15,2013-08-25 13:47:00,
2013-08-25 09:49:00,73.4,58.7,30.41,NW,304,2.0,6.0,60,0.00,,,0.01,Wunderground v.1.15,2013-08-25 13:49:00,
2013-08-25 09:51:00,73.1,58.4,30.41,WNW,291,2.0,6.0,60,0.00,,,0.01,Wunderground v.1.15,2013-08-25 13:51:00,
2013-08-25 09:52:00,72.8,58.1,30.41,WNW,296,4.0,6.0,60,0.00,,,0.01,Wunderground v.1.15,2013-08-25 13:52:00,
2013-08-25 09:53:00,72.5,57.4,30.41,WNW,297,3.0,6.0,59,0.00,,,0.01,Wunderground v.1.15,2013-08-25 13:53:00,
2013-08-25 09:54:00,72.2,57.5,30.41,WNW,286,4.0,6.0,60,0.00,,,0.01,Wunderground v.1.15,2013-08-25 13:54:00,
2013-08-25 09:56:00,72.0,57.4,30.41,WNW,296,3.0,6.0,60,0.00,,,0.01,Wunderground v.1.15,2013-08-25 13:56:00,
2013-08-25 09:57:00,71.8,57.2,30.41,WNW,294,3.0,6.0,60,0.00,,,0.01,Wunderground v.1.15,2013-08-25 13:57:00,
2013-08-25 09:58:00,71.7,57.1,30.41,WNW,282,3.0,6.0,60,0.00,,,0.01,Wunderground v.1.15,2013-08-25 13:58:00,
2013-08-25 09:59:00,71.6,57.0,30.41,NW,315,4.0,6.0,60,0.00,,,0.01,Wunderground v.1.15,2013-08-25 13:59:00,
2013-08-25 10:01:00,71.5,57.3,30.41,WNW,298,2.0,6.0,61,0.00,,,0.01,Wunderground v.1.15,2013-08-25 14:01:00,
2013-08-25 10:02:00,71.5,57.3,30.41,WNW,300,2.0,6.0,61,0.00,,,0.01,Wunderground v.1.15,2013-08-25 14:02:00,
2013-08-25 10:03:00,71.5,56.9,30.41,WNW,291,1.0,6.0,60,0.00,,,0.01,Wunderground v.1.15,2013-08-25 14:03:00,
2013-08-25 10:04:00,71.6,57.0,30.41,WNW,291,2.0,6.0,60,0.00,,,0.01,Wunderground v.1.15,2013-08-25 14:04:00,
2013-08-25 10:06:00,71.7,57.5,30.41,WNW,290,2.0,6.0,61,0.00,,,0.01,Wunderground v.1.15,2013-08-25 14:06:00,
2013-08-25 10:07:00,72.0,58.7,30.41,West,273,3.0,4.0,63,0.00,,,0.01,Wunderground v.1.15,2013-08-25 14:07:00,
2013-08-25 10:09:00,72.0,57.4,30.41,WNW,288,0.0,4.0,60,0.00,,,0.01,Wunderground v.1.15,2013-08-25 14:09:00,
2013-08-25 10:11:00,72.2,58.5,30.41,WNW,288,0.0,4.0,62,0.00,,,0.01,Wunderground v.1.15,2013-08-25 14:11:00,
2013-08-25 10:12:00,72.4,59.1,30.41,WNW,288,1.0,4.0,63,0.00,,,0.01,Wunderground v.1.15,2013-08-25 14:12:00,
2013-08-25 10:13:00,72.5,58.7,30.41,WNW,288,2.0,4.0,62,0.00,,,0.01,Wunderground v.1.15,2013-08-25 14:13:00,
2013-08-25 10:14:00,72.5,58.3,30.41,NW,314,5.0,5.0,61,0.00,,,0.01,Wunderground v.1.15,2013-08-25 14:14:00,
2013-08-25 10:16:00,72.6,57.4,30.41,West,273,4.0,6.0,59,0.00,,,0.01,Wunderground v.1.15,2013-08-25 14:16:00,
2013-08-25 10:17:00,72.6,56.5,30.41,West,279,1.0,6.0,57,0.00,,,0.01,Wunderground v.1.15,2013-08-25 14:17:00,
2013-08-25 10:18:00,72.6,56.5,30.41,West,279,1.0,6.0,57,0.00,,,0.01,Wunderground v.1.15,2013-08-25 14:18:00,
2013-08-25 10:19:00,72.7,57.1,30.41,West,279,2.0,6.0,58,0.00,,,0.01,Wunderground v.1.15,2013-08-25 14:19:00,
2013-08-25 10:21:00,72.8,55.7,30.40,WNW,290,1.0,6.0,55,0.00,,,0.01,Wunderground v.1.15,2013-08-25 14:21:00,
2013-08-25 10:23:00,73.0,55.4,30.40,NW,319,2.0,6.0,54,0.00,,,0.01,Wunderground v.1.15,2013-08-25 14:23:00,
2013-08-25 10:24:00,73.1,55.5,30.40,WNW,292,4.0,6.0,54,0.00,,,0.01,Wunderground v.1.15,2013-08-25 14:24:00,
2013-08-25 10:25:00,73.1,54.4,30.40,WNW,292,2.0,6.0,52,0.00,,,0.01,Wunderground v.1.15,2013-08-25 14:25:00,
2013-08-25 10:26:00,73.2,55.0,30.40,NW,309,4.0,8.0,53,0.00,,,0.01,Wunderground v.1.15,2013-08-25 14:26:00,
2013-08-25 10:28:00,73.1,54.4,30.40,West,271,2.0,8.0,52,0.00,,,0.01,Wunderground v.1.15,2013-08-25 14:28:00,
2013-08-25 10:29:00,73.1,54.4,30.41,West,269,2.0,8.0,52,0.00,,,0.01,Wunderground v.1.15,2013-08-25 14:29:00,
2013-08-25 10:30:00,73.1,54.9,30.40,NW,321,1.0,8.0,53,0.00,,,0.01,Wunderground v.1.15,2013-08-25 14:30:00,
2013-08-25 10:32:00,73.3,54.6,30.41,NNW,327,1.0,8.0,52,0.00,,,0.01,Wunderground v.1.15,2013-08-25 14:32:00,
2013-08-25 10:33:00,73.4,55.2,30.40,WSW,245,7.0,8.0,53,0.00,,,0.01,Wunderground v.1.15,2013-08-25 14:33:00,
2013-08-25 10:34:00,73.4,55.2,30.40,WNW,292,4.0,8.0,53,0.00,,,0.01,Wunderground v.1.15,2013-08-25 14:34:00,
2013-08-25 10:35:00,73.4,54.2,30.40,WNW,292,5.0,8.0,51,0.00,,,0.01,Wunderground v.1.15,2013-08-25 14:35:00,
2013-08-25 10:37:00,73.4,55.2,30.40,NW,311,4.0,4.0,53,0.00,,,0.01,Wunderground v.1.15,2013-08-25 14:37:00,
2013-08-25 10:38:00,73.4,54.7,30.40,NW,311,3.0,5.0,52,0.00,,,0.01,Wunderground v.1.15,2013-08-25 14:38:00,
2013-08-25 10:39:00,73.4,54.7,30.40,WNW,289,3.0,5.0,52,0.00,,,0.01,Wunderground v.1.15,2013-08-25 14:39:00,
2013-08-25 10:40:00,73.4,54.2,30.40,WNW,301,2.0,5.0,51,0.00,,,0.01,Wunderground v.1.15,2013-08-25 14:40:00,
2013-08-25 10:43:00,73.4,54.7,30.40,WNW,296,1.0,5.0,52,0.00,,,0.01,Wunderground v.1.15,2013-08-25 14:43:00,
2013-08-25 10:44:00,73.5,54.3,30.40,NW,317,2.0,5.0,51,0.00,,,0.01,Wunderground v.1.15,2013-08-25 14:44:00,
2013-08-25 10:45:00,73.5,53.7,30.40,NW,323,3.0,6.0,50,0.00,,,0.01,Wunderground v.1.15,2013-08-25 14:45:00,
2013-08-25 10:48:00,73.6,53.3,30.40,NW,306,0.0,3.0,49,0.00,,,0.01,Wunderground v.1.15,2013-08-25 14:48:00,
2013-08-25 10:49:00,73.7,53.3,30.40,WNW,298,3.0,3.0,49,0.00,,,0.01,Wunderground v.1.15,2013-08-25 14:49:00,
2013-08-25 10:50:00,73.7,53.3,30.40,WNW,300,4.0,6.0,49,0.00,,,0.01,Wunderground v.1.15,2013-08-25 14:50:00,
2013-08-25 10:53:00,73.8,54.0,30.39,West,276,1.0,6.0,50,0.00,,,0.01,Wunderground v.1.15,2013-08-25 14:53:00,
2013-08-25 10:54:00,73.9,53.5,30.39,West,276,0.0,6.0,49,0.00,,,0.01,Wunderground v.1.15,2013-08-25 14:54:00,
2013-08-25 10:55:00,74.1,53.2,30.39,West,276,1.0,6.0,48,0.00,,,0.01,Wunderground v.1.15,2013-08-25 14:55:00,
2013-08-25 10:58:00,74.7,54.3,30.39,West,276,0.0,2.0,49,0.00,,,0.01,Wunderground v.1.15,2013-08-25 14:58:00,
2013-08-25 10:59:00,75.0,54.0,30.39,West,267,0.0,2.0,48,0.00,,,0.01,Wunderground v.1.15,2013-08-25 14:59:00,
2013-08-25 11:00:00,75.2,54.2,30.39,West,267,1.0,2.0,48,0.00,,,0.01,Wunderground v.1.15,2013-08-25 15:00:00,
2013-08-25 11:03:00,75.5,54.4,30.39,West,267,1.0,3.0,48,0.00,,,0.01,Wunderground v.1.15,2013-08-25 15:03:00,
2013-08-25 11:04:00,75.7,54.0,30.39,West,266,1.0,3.0,47,0.00,,,0.01,Wunderground v.1.15,2013-08-25 15:04:00,
2013-08-25 11:05:00,75.7,54.0,30.39,West,266,1.0,3.0,47,0.00,,,0.01,Wunderground v.1.15,2013-08-25 15:05:00,
2013-08-25 11:08:00,75.5,53.9,30.39,South,175,2.0,5.0,47,0.00,,,0.01,Wunderground v.1.15,2013-08-25 15:08:00,
2013-08-25 11:10:00,75.3,51.9,30.39,SSW,201,0.0,5.0,44,0.00,,,0.01,Wunderground v.1.15,2013-08-25 15:10:00,
2013-08-25 11:14:00,75.3,53.1,30.38,SSW,201,0.0,5.0,46,0.00,,,0.01,Wunderground v.1.15,2013-08-25 15:14:00,
2013-08-25 11:15:00,75.4,53.8,30.38,SSE,165,2.0,5.0,47,0.00,,,0.01,Wunderground v.1.15,2013-08-25 15:15:00,
2013-08-25 11:19:00,75.9,52.4,30.38,South,179,0.0,2.0,44,0.00,,,0.01,Wunderground v.1.15,2013-08-25 15:19:00,
2013-08-25 11:20:00,76.0,53.1,30.38,South,182,1.0,3.0,45,0.00,,,0.01,Wunderground v.1.15,2013-08-25 15:20:00,
2013-08-25 11:24:00,76.0,51.2,30.38,SSW,198,2.0,4.0,42,0.00,,,0.01,Wunderground v.1.15,2013-08-25 15:24:00,
2013-08-25 11:25:00,75.9,51.2,30.38,SSW,198,2.0,4.0,42,0.00,,,0.01,Wunderground v.1.15,2013-08-25 15:25:00,
2013-08-25 11:26:00,75.8,51.7,30.38,SSW,198,2.0,4.0,43,0.00,,,0.01,Wunderground v.1.15,2013-08-25 15:26:00,
2013-08-25 11:29:00,75.5,52.7,30.38,SSW,198,2.0,2.0,45,0.00,,,0.01,Wunderground v.1.15,2013-08-25 15:29:00,
2013-08-25 11:30:00,75.5,52.1,30.38,SSE,163,0.0,4.0,44,0.00,,,0.01,Wunderground v.1.15,2013-08-25 15:30:00,
2013-08-25 11:31:00,75.6,52.8,30.38,SSE,163,0.0,4.0,45,0.00,,,0.01,Wunderground v.1.15,2013-08-25 15:31:00,
2013-08-25 11:34:00,75.5,52.1,30.37,WSW,237,3.0,6.0,44,0.00,,,0.01,Wunderground v.1.15,2013-08-25 15:34:00,
2013-08-25 11:35:00,75.4,52.0,30.37,SW,236,1.0,6.0,44,0.00,,,0.01,Wunderground v.1.15,2013-08-25 15:35:00,
2013-08-25 11:36:00,75.5,52.7,30.37,SW,236,1.0,6.0,45,0.00,,,0.01,Wunderground v.1.15,2013-08-25 15:36:00,
2013-08-25 11:39:00,75.7,53.4,30.37,NW,309,1.0,5.0,46,0.00,,,0.01,Wunderground v.1.15,2013-08-25 15:39:00,
2013-08-25 11:40:00,75.8,53.5,30.37,SSW,209,3.0,5.0,46,0.00,,,0.01,Wunderground v.1.15,2013-08-25 15:40:00,
2013-08-25 11:41:00,75.8,52.9,30.37,SSW,209,3.0,5.0,45,0.00,,,0.01,Wunderground v.1.15,2013-08-25 15:41:00,
2013-08-25 11:44:00,74.9,52.1,30.37,SW,232,3.0,8.0,45,0.00,,,0.01,Wunderground v.1.15,2013-08-25 15:44:00,
2013-08-25 11:46:00,74.9,52.1,30.37,WSW,252,2.0,8.0,45,0.00,,,0.01,Wunderground v.1.15,2013-08-25 15:46:00,
2013-08-25 11:49:00,75.0,52.8,30.36,West,261,1.0,7.0,46,0.00,,,0.01,Wunderground v.1.15,2013-08-25 15:49:00,
2013-08-25 11:51:00,75.1,52.9,30.37,West,261,0.0,7.0,46,0.00,,,0.01,Wunderground v.1.15,2013-08-25 15:51:00,
2013-08-25 11:52:00,75.1,52.3,30.36,WSW,242,1.0,7.0,45,0.00,,,0.01,Wunderground v.1.15,2013-08-25 15:52:00,
2013-08-25 11:54:00,75.1,52.9,30.36,SSW,212,2.0,7.0,46,0.00,,,0.01,Wunderground v.1.15,2013-08-25 15:54:00,
2013-08-25 11:56:00,75.3,53.1,30.36,SSW,212,2.0,2.0,46,0.00,,,0.01,Wunderground v.1.15,2013-08-25 15:56:00,
2013-08-25 11:57:00,75.5,53.3,30.36,NW,312,5.0,8.0,46,0.00,,,0.01,Wunderground v.1.15,2013-08-25 15:57:00,
2013-08-25 11:59:00,75.6,52.8,30.36,WNW,300,1.0,8.0,45,0.00,,,0.01,Wunderground v.1.15,2013-08-25 15:59:00,
2013-08-25 12:01:00,75.7,52.8,30.36,WNW,283,1.0,8.0,45,0.00,,,0.01,Wunderground v.1.15,2013-08-25 16:01:00,
2013-08-25 12:02:00,75.8,52.3,30.36,WNW,282,1.0,8.0,44,0.00,,,0.01,Wunderground v.1.15,2013-08-25 16:02:00,
2013-08-25 12:05:00,75.8,53.5,30.36,West,275,1.0,8.0,46,0.00,,,0.01,Wunderground v.1.15,2013-08-25 16:05:00,
2013-08-25 12:06:00,75.9,53.6,30.36,SW,232,2.0,3.0,46,0.00,,,0.01,Wunderground v.1.15,2013-08-25 16:06:00,
2013-08-25 12:07:00,76.0,53.7,30.36,SW,229,2.0,3.0,46,0.00,,,0.01,Wunderground v.1.15,2013-08-25 16:07:00,
2013-08-25 12:10:00,76.1,53.8,30.36,East,88,2.0,4.0,46,0.00,,,0.01,Wunderground v.1.15,2013-08-25 16:10:00,
2013-08-25 12:11:00,76.0,53.1,30.36,East,88,4.0,4.0,45,0.00,,,0.01,Wunderground v.1.15,2013-08-25 16:11:00,
2013-08-25 12:12:00,75.9,53.6,30.35,ENE,78,2.0,4.0,46,0.00,,,0.01,Wunderground v.1.15,2013-08-25 16:12:00,
2013-08-25 12:13:00,75.8,52.9,30.35,ENE,78,2.0,4.0,45,0.00,,,0.01,Wunderground v.1.15,2013-08-25 16:13:00,
2013-08-25 12:16:00,75.8,53.5,30.36,ENE,78,1.0,4.0,46,0.00,,,0.01,Wunderground v.1.15,2013-08-25 16:16:00,
2013-08-25 12:17:00,76.0,54.3,30.35,South,182,4.0,5.0,47,0.00,,,0.01,Wunderground v.1.15,2013-08-25 16:17:00,
2013-08-25 12:18:00,76.1,53.2,30.35,SSW,197,1.0,5.0,45,0.00,,,0.01,Wunderground v.1.15,2013-08-25 16:18:00,
2013-08-25 12:20:00,76.2,52.7,30.35,WSW,237,2.0,6.0,44,0.00,,,0.01,Wunderground v.1.15,2013-08-25 16:20:00,
2013-08-25 12:21:00,76.4,53.5,30.35,South,184,3.0,6.0,45,0.00,,,0.01,Wunderground v.1.15,2013-08-25 16:21:00,
2013-08-25 12:22:00,76.4,52.9,30.35,West,264,6.0,7.0,44,0.00,,,0.01,Wunderground v.1.15,2013-08-25 16:22:00,
2013-08-25 12:23:00,76.4,53.5,30.35,WSW,245,3.0,8.0,45,0.00,,,0.01,Wunderground v.1.15,2013-08-25 16:23:00,
2013-08-25 12:26:00,76.2,52.7,30.35,WSW,239,1.0,8.0,44,0.00,,,0.01,Wunderground v.1.15,2013-08-25 16:26:00,
2013-08-25 12:27:00,76.3,52.8,30.35,SW,230,4.0,4.0,44,0.00,,,0.01,Wunderground v.1.15,2013-08-25 16:27:00,
2013-08-25 12:28:00,76.4,51.6,30.35,SW,229,2.0,5.0,42,0.00,,,0.01,Wunderground v.1.15,2013-08-25 16:28:00,
2013-08-25 12:31:00,76.5,52.3,30.35,West,267,6.0,6.0,43,0.00,,,0.01,Wunderground v.1.15,2013-08-25 16:31:00,
2013-08-25 12:32:00,76.4,51.0,30.35,SSW,200,3.0,7.0,41,0.00,,,0.01,Wunderground v.1.15,2013-08-25 16:32:00,
2013-08-25 12:33:00,76.4,51.0,30.35,SSW,200,3.0,7.0,41,0.00,,,0.01,Wunderground v.1.15,2013-08-25 16:33:00,
2013-08-25 12:36:00,76.3,50.2,30.36,SSW,202,0.0,7.0,40,0.00,,,0.01,Wunderground v.1.15,2013-08-25 16:36:00,
2013-08-25 12:37:00,76.5,51.0,30.35,WNW,300,4.0,8.0,41,0.00,,,0.01,Wunderground v.1.15,2013-08-25 16:37:00,
2013-08-25 12:38:00,76.4,50.3,30.36,WNW,295,4.0,8.0,40,0.00,,,0.01,Wunderground v.1.15,2013-08-25 16:38:00,
2013-08-25 12:41:00,76.3,51.5,30.36,WNW,300,3.0,8.0,42,0.00,,,0.01,Wunderground v.1.15,2013-08-25 16:41:00,
2013-08-25 12:42:00,76.4,51.0,30.36,West,281,4.0,8.0,41,0.00,,,0.01,Wunderground v.1.15,2013-08-25 16:42:00,
2013-08-25 12:43:00,76.3,50.9,30.36,West,281,2.0,8.0,41,0.00,,,0.01,Wunderground v.1.15,2013-08-25 16:43:00,
2013-08-25 12:44:00,76.3,50.9,30.36,West,263,4.0,8.0,41,0.00,,,0.01,Wunderground v.1.15,2013-08-25 16:44:00,
2013-08-25 12:46:00,76.4,51.6,30.36,WSW,245,4.0,8.0,42,0.00,,,0.01,Wunderground v.1.15,2013-08-25 16:46:00,
2013-08-25 12:47:00,76.5,51.7,30.35,SSE,157,3.0,5.0,42,0.00,,,0.01,Wunderground v.1.15,2013-08-25 16:47:00,
2013-08-25 12:48:00,76.6,51.8,30.35,SSE,163,6.0,6.0,42,0.00,,,0.01,Wunderground v.1.15,2013-08-25 16:48:00,
2013-08-25 12:49:00,76.6,51.1,30.35,South,183,2.0,6.0,41,0.00,,,0.01,Wunderground v.1.15,2013-08-25 16:49:00,
2013-08-25 12:51:00,76.7,51.2,30.35,South,182,3.0,6.0,41,0.00,,,0.01,Wunderground v.1.15,2013-08-25 16:51:00,
2013-08-25 12:53:00,76.8,52.0,30.35,South,182,3.0,6.0,42,0.00,,,0.01,Wunderground v.1.15,2013-08-25 16:53:00,
2013-08-25 12:54:00,76.9,52.1,30.35,South,182,2.0,6.0,42,0.00,,,0.01,Wunderground v.1.15,2013-08-25 16:54:00,
2013-08-25 12:57:00,77.0,51.5,30.35,SE,131,0.0,3.0,41,0.00,,,0.01,Wunderground v.1.15,2013-08-25 16:57:00,
2013-08-25 12:58:00,77.2,52.3,30.35,SSE,160,1.0,3.0,42,0.00,,,0.01,Wunderground v.1.15,2013-08-25 16:58:00,
2013-08-25 12:59:00,77.2,52.3,30.35,SSE,160,1.0,3.0,42,0.00,,,0.01,Wunderground v.1.15,2013-08-25 16:59:00,
2013-08-25 13:02:00,78.0,52.4,30.35,ESE,123,0.0,3.0,41,0.00,,,0.01,Wunderground v.1.15,2013-08-25 17:02:00,
2013-08-25 13:03:00,78.1,51.8,30.35,ESE,123,2.0,3.0,40,0.00,,,0.01,Wunderground v.1.15,2013-08-25 17:03:00,
2013-08-25 13:04:00,78.2,51.9,30.35,ESE,123,2.0,3.0,40,0.00,,,0.01,Wunderground v.1.15,2013-08-25 17:04:00,
2013-08-25 13:05:00,78.3,52.0,30.35,SW,215,3.0,4.0,40,0.00,,,0.01,Wunderground v.1.15,2013-08-25 17:05:00,
2013-08-25 13:07:00,78.1,52.5,30.34,West,280,4.0,5.0,41,0.00,,,0.01,Wunderground v.1.15,2013-08-25 17:07:00,
2013-08-25 13:09:00,78.0,53.0,30.34,WSW,244,1.0,6.0,42,0.00,,,0.01,Wunderground v.1.15,2013-08-25 17:09:00,
2013-08-25 13:10:00,78.0,53.7,30.34,SSW,193,3.0,6.0,43,0.00,,,0.01,Wunderground v.1.15,2013-08-25 17:10:00,
2013-08-25 13:13:00,77.9,54.2,30.34,South,186,2.0,7.0,44,0.00,,,0.01,Wunderground v.1.15,2013-08-25 17:13:00,
2013-08-25 13:14:00,77.8,54.1,30.34,SSW,198,4.0,7.0,44,0.00,,,0.01,Wunderground v.1.15,2013-08-25 17:14:00,
2013-08-25 13:15:00,77.7,54.0,30.35,SW,225,6.0,7.0,44,0.00,,,0.01,Wunderground v.1.15,2013-08-25 17:15:00,
2013-08-25 13:18:00,77.3,53.7,30.34,SW,223,7.0,7.0,44,0.00,,,0.01,Wunderground v.1.15,2013-08-25 17:18:00,
2013-08-25 13:19:00,77.2,53.6,30.34,South,183,3.0,7.0,44,0.00,,,0.01,Wunderground v.1.15,2013-08-25 17:19:00,
2013-08-25 13:20:00,77.2,53.6,30.34,SSE,155,2.0,7.0,44,0.00,,,0.01,Wunderground v.1.15,2013-08-25 17:20:00,
2013-08-25 13:23:00,77.4,53.1,30.34,SSW,205,3.0,7.0,43,0.00,,,0.01,Wunderground v.1.15,2013-08-25 17:23:00,
2013-08-25 13:24:00,77.4,53.1,30.34,SSW,205,1.0,7.0,43,0.00,,,0.01,Wunderground v.1.15,2013-08-25 17:24:00,
2013-08-25 13:25:00,77.4,53.1,30.34,SSW,205,1.0,7.0,43,0.00,,,0.01,Wunderground v.1.15,2013-08-25 17:25:00,
2013-08-25 13:28:00,77.6,54.0,30.34,WSW,243,3.0,5.0,44,0.00,,,0.01,Wunderground v.1.15,2013-08-25 17:28:00,
2013-08-25 13:29:00,77.6,53.3,30.34,NW,311,4.0,7.0,43,0.00,,,0.01,Wunderground v.1.15,2013-08-25 17:29:00,
2013-08-25 13:30:00,77.6,53.3,30.34,WNW,292,2.0,7.0,43,0.00,,,0.01,Wunderground v.1.15,2013-08-25 17:30:00,
2013-08-25 13:31:00,77.6,54.0,30.34,West,269,2.0,7.0,44,0.00,,,0.01,Wunderground v.1.15,2013-08-25 17:31:00,
2013-08-25 13:33:00,78.2,56.3,30.34,WSW,241,2.0,7.0,47,0.00,,,0.01,Wunderground v.1.15,2013-08-25 17:33:00,
2013-08-25 13:35:00,78.4,56.5,30.34,SW,219,2.0,7.0,47,0.00,,,0.01,Wunderground v.1.15,2013-08-25 17:35:00,
2013-08-25 13:36:00,78.5,56.0,30.34,SSW,212,2.0,7.0,46,0.00,,,0.01,Wunderground v.1.15,2013-08-25 17:36:00,
2013-08-25 13:39:00,79.0,55.8,30.34,South,188,1.0,7.0,45,0.00,,,0.01,Wunderground v.1.15,2013-08-25 17:39:00,
2013-08-25 13:40:00,79.1,54.7,30.34,West,270,2.0,7.0,43,0.00,,,0.01,Wunderground v.1.15,2013-08-25 17:40:00,
2013-08-25 13:41:00,79.0,55.2,30.34,SW,234,4.0,7.0,44,0.00,,,0.01,Wunderground v.1.15,2013-08-25 17:41:00,
2013-08-25 13:44:00,78.2,51.9,30.34,SW,215,6.0,11.0,40,0.00,,,0.01,Wunderground v.1.15,2013-08-25 17:44:00,
2013-08-25 13:45:00,78.1,51.8,30.34,ESE,104,2.0,11.0,40,0.00,,,0.01,Wunderground v.1.15,2013-08-25 17:45:00,
2013-08-25 13:46:00,77.9,51.6,30.33,SW,225,2.0,11.0,40,0.00,,,0.01,Wunderground v.1.15,2013-08-25 17:46:00,
2013-08-25 13:49:00,77.8,52.9,30.33,WNW,300,4.0,10.0,42,0.00,,,0.01,Wunderground v.1.15,2013-08-25 17:49:00,
2013-08-25 13:51:00,77.7,52.8,30.33,WSW,251,4.0,12.0,42,0.00,,,0.01,Wunderground v.1.15,2013-08-25 17:51:00,
2013-08-25 13:52:00,77.6,52.0,30.33,NE,42,1.0,12.0,41,0.00,,,0.01,Wunderground v.1.15,2013-08-25 17:52:00,
2013-08-25 13:54:00,77.7,53.4,30.33,WSW,247,4.0,12.0,43,0.00,,,0.01,Wunderground v.1.15,2013-08-25 17:54:00,
2013-08-25 13:56:00,77.9,53.0,30.33,WSW,254,8.0,8.0,42,0.00,,,0.01,Wunderground v.1.15,2013-08-25 17:56:00,
2013-08-25 13:57:00,77.9,53.6,30.33,WSW,253,5.0,9.0,43,0.00,,,0.01,Wunderground v.1.15,2013-08-25 17:57:00,
2013-08-25 13:59:00,77.7,53.4,30.33,WSW,257,9.0,10.0,43,0.00,,,0.01,Wunderground v.1.15,2013-08-25 17:59:00,
2013-08-25 14:01:00,77.6,54.0,30.33,South,182,2.0,11.0,44,0.00,,,0.01,Wunderground v.1.15,2013-08-25 18:01:00,
2013-08-25 14:02:00,77.7,54.0,30.33,South,184,3.0,11.0,44,0.00,,,0.01,Wunderground v.1.15,2013-08-25 18:02:00,
2013-08-25 14:05:00,77.8,52.9,30.33,South,180,5.0,11.0,42,0.00,,,0.01,Wunderground v.1.15,2013-08-25 18:05:00,
2013-08-25 14:06:00,77.9,54.8,30.33,South,173,3.0,5.0,45,0.00,,,0.01,Wunderground v.1.15,2013-08-25 18:06:00,
2013-08-25 14:08:00,78.0,54.3,30.33,SSW,207,2.0,6.0,44,0.00,,,0.01,Wunderground v.1.15,2013-08-25 18:08:00,
2013-08-25 14:10:00,78.0,53.0,30.33,SSW,202,2.0,6.0,42,0.00,,,0.01,Wunderground v.1.15,2013-08-25 18:10:00,
2013-08-25 14:11:00,78.1,53.8,30.33,South,188,1.0,6.0,43,0.00,,,0.01,Wunderground v.1.15,2013-08-25 18:11:00,
2013-08-25 14:12:00,78.1,53.8,30.33,SSE,161,5.0,6.0,43,0.00,,,0.01,Wunderground v.1.15,2013-08-25 18:12:00,
2013-08-25 14:13:00,78.2,53.9,30.33,SSW,195,3.0,6.0,43,0.00,,,0.01,Wunderground v.1.15,2013-08-25 18:13:00,
2013-08-25 14:15:00,78.4,54.0,30.33,South,173,1.0,7.0,43,0.00,,,0.01,Wunderground v.1.15,2013-08-25 18:15:00,
2013-08-25 14:17:00,78.5,54.8,30.33,SW,219,3.0,7.0,44,0.00,,,0.01,Wunderground v.1.15,2013-08-25 18:17:00,
2013-08-25 14:18:00,78.6,53.6,30.32,South,191,2.0,7.0,42,0.00,,,0.01,Wunderground v.1.15,2013-08-25 18:18:00,
2013-08-25 14:20:00,78.7,55.0,30.33,South,186,3.0,7.0,44,0.00,,,0.01,Wunderground v.1.15,2013-08-25 18:20:00,
2013-08-25 14:22:00,78.8,55.7,30.32,SSE,161,5.0,7.0,45,0.00,,,0.01,Wunderground v.1.15,2013-08-25 18:22:00,
2013-08-25 14:23:00,78.9,55.1,30.32,ESE,102,2.0,7.0,44,0.00,,,0.01,Wunderground v.1.15,2013-08-25 18:23:00,
2013-08-25 14:26:00,79.2,56.0,30.32,South,183,3.0,7.0,45,0.00,,,0.01,Wunderground v.1.15,2013-08-25 18:26:00,
2013-08-25 14:27:00,79.2,54.8,30.32,SW,222,4.0,12.0,43,0.00,,,0.01,Wunderground v.1.15,2013-08-25 18:27:00,
2013-08-25 14:28:00,79.2,54.8,30.32,WSW,248,5.0,12.0,43,0.00,,,0.01,Wunderground v.1.15,2013-08-25 18:28:00,
2013-08-25 14:31:00,78.8,53.8,30.32,NW,306,5.0,12.0,42,0.00,,,0.01,Wunderground v.1.15,2013-08-25 18:31:00,
2013-08-25 14:32:00,78.6,54.2,30.32,NNW,327,8.0,12.0,43,0.00,,,0.01,Wunderground v.1.15,2013-08-25 18:32:00,
2013-08-25 14:33:00,78.4,53.4,30.32,NW,325,4.0,12.0,42,0.00,,,0.01,Wunderground v.1.15,2013-08-25 18:33:00,
2013-08-25 14:34:00,78.4,52.7,30.32,NNW,344,2.0,12.0,41,0.00,,,0.01,Wunderground v.1.15,2013-08-25 18:34:00,
2013-08-25 14:36:00,78.5,54.8,30.32,WSW,241,2.0,4.0,44,0.00,,,0.01,Wunderground v.1.15,2013-08-25 18:36:00,
2013-08-25 14:37:00,78.8,54.4,30.32,SW,229,1.0,5.0,43,0.00,,,0.01,Wunderground v.1.15,2013-08-25 18:37:00,
2013-08-25 14:38:00,78.9,54.5,30.32,SW,229,3.0,5.0,43,0.00,,,0.01,Wunderground v.1.15,2013-08-25 18:38:00,
2013-08-25 14:39:00,79.0,54.6,30.32,WSW,254,2.0,5.0,43,0.00,,,0.01,Wunderground v.1.15,2013-08-25 18:39:00,
2013-08-25 14:41:00,79.2,54.8,30.32,WSW,243,1.0,6.0,43,0.00,,,0.01,Wunderground v.1.15,2013-08-25 18:41:00,
2013-08-25 14:42:00,79.1,54.0,30.31,South,184,3.0,9.0,42,0.00,,,0.01,Wunderground v.1.15,2013-08-25 18:42:00,
2013-08-25 14:43:00,79.1,54.7,30.32,South,189,1.0,9.0,43,0.00,,,0.01,Wunderground v.1.15,2013-08-25 18:43:00,
2013-08-25 14:44:00,79.1,54.0,30.32,South,180,1.0,9.0,42,0.00,,,0.01,Wunderground v.1.15,2013-08-25 18:44:00,
2013-08-25 14:46:00,79.1,53.4,30.32,SW,221,3.0,3.0,41,0.00,,,0.01,Wunderground v.1.15,2013-08-25 18:46:00,
2013-08-25 14:48:00,78.9,53.9,30.32,WSW,246,2.0,6.0,42,0.00,,,0.01,Wunderground v.1.15,2013-08-25 18:48:00,
2013-08-25 14:49:00,78.7,53.0,30.32,SW,228,4.0,6.0,41,0.00,,,0.01,Wunderground v.1.15,2013-08-25 18:49:00,
2013-08-25 14:51:00,78.6,54.2,30.32,SW,220,4.0,6.0,43,0.00,,,0.01,Wunderground v.1.15,2013-08-25 18:51:00,
2013-08-25 14:53:00,78.5,54.8,30.32,SSW,203,2.0,7.0,44,0.00,,,0.01,Wunderground v.1.15,2013-08-25 18:53:00,
2013-08-25 14:54:00,78.6,54.9,30.32,SSW,203,1.0,7.0,44,0.00,,,0.01,Wunderground v.1.15,2013-08-25 18:54:00,
2013-08-25 14:55:00,78.7,55.0,30.32,SSW,200,6.0,7.0,44,0.00,,,0.01,Wunderground v.1.15,2013-08-25 18:55:00,
2013-08-25 14:57:00,78.8,53.8,30.32,SSW,209,2.0,4.0,42,0.00,,,0.01,Wunderground v.1.15,2013-08-25 18:57:00,
2013-08-25 14:58:00,79.1,54.0,30.32,SW,232,2.0,5.0,42,0.00,,,0.01,Wunderground v.1.15,2013-08-25 18:58:00,
2013-08-25 14:59:00,79.2,54.8,30.32,SW,227,2.0,5.0,43,0.00,,,0.01,Wunderground v.1.15,2013-08-25 18:59:00,
2013-08-25 15:00:00,79.3,54.9,30.32,SW,227,2.0,5.0,43,0.00,,,0.01,Wunderground v.1.15,2013-08-25 19:00:00,
2013-08-25 15:02:00,79.2,53.5,30.32,SW,236,0.0,10.0,41,0.00,,,0.01,Wunderground v.1.15,2013-08-25 19:02:00,
2013-08-25 15:03:00,79.2,52.1,30.32,SSW,210,4.0,10.0,39,0.00,,,0.01,Wunderground v.1.15,2013-08-25 19:03:00,
2013-08-25 15:04:00,79.2,52.8,30.32,WSW,251,2.0,10.0,40,0.00,,,0.01,Wunderground v.1.15,2013-08-25 19:04:00,
2013-08-25 15:05:00,79.1,52.7,30.32,SSE,160,4.0,10.0,40,0.00,,,0.01,Wunderground v.1.15,2013-08-25 19:05:00,
2013-08-25 15:08:00,79.1,52.0,30.32,SW,223,0.0,3.0,39,0.00,,,0.01,Wunderground v.1.15,2013-08-25 19:08:00,
2013-08-25 15:09:00,79.2,51.4,30.32,South,184,2.0,4.0,38,0.00,,,0.01,Wunderground v.1.15,2013-08-25 19:09:00,
2013-08-25 15:10:00,79.3,51.5,30.32,South,172,5.0,5.0,38,0.00,,,0.01,Wunderground v.1.15,2013-08-25 19:10:00,
2013-08-25 15:13:00,79.5,54.4,30.32,SW,221,4.0,7.0,42,0.00,,,0.01,Wunderground v.1.15,2013-08-25 19:13:00,
2013-08-25 15:14:00,79.6,53.8,30.32,NW,311,3.0,7.0,41,0.00,,,0.01,Wunderground v.1.15,2013-08-25 19:14:00,
2013-08-25 15:15:00,79.6,53.8,30.32,NW,319,1.0,7.0,41,0.00,,,0.01,Wunderground v.1.15,2013-08-25 19:15:00,
2013-08-25 15:18:00,79.5,52.4,30.32,SE,140,3.0,8.0,39,0.00,,,0.01,Wunderground v.1.15,2013-08-25 19:18:00,
2013-08-25 15:19:00,79.4,53.0,30.32,SSW,208,3.0,9.0,40,0.00,,,0.01,Wunderground v.1.15,2013-08-25 19:19:00,
2013-08-25 15:20:00,79.4,52.3,30.32,SW,219,2.0,9.0,39,0.00,,,0.01,Wunderground v.1.15,2013-08-25 19:20:00,
2013-08-25 15:23:00,79.4,53.0,30.31,South,191,2.0,9.0,40,0.00,,,0.01,Wunderground v.1.15,2013-08-25 19:23:00,
2013-08-25 15:24:00,79.4,53.0,30.32,SSW,209,4.0,9.0,40,0.00,,,0.01,Wunderground v.1.15,2013-08-25 19:24:00,
2013-08-25 15:25:00,79.4,53.0,30.32,SSE,147,3.0,9.0,40,0.00,,,0.01,Wunderground v.1.15,2013-08-25 19:25:00,
2013-08-25 15:28:00,79.2,52.1,30.31,SW,234,4.0,9.0,39,0.00,,,0.01,Wunderground v.1.15,2013-08-25 19:28:00,
2013-08-25 15:29:00,79.1,52.7,30.31,SSW,202,6.0,9.0,40,0.00,,,0.01,Wunderground v.1.15,2013-08-25 19:29:00,
2013-08-25 15:30:00,79.1,52.7,30.31,South,189,4.0,9.0,40,0.00,,,0.01,Wunderground v.1.15,2013-08-25 19:30:00,
2013-08-25 15:34:00,79.1,54.0,30.31,WNW,297,3.0,9.0,42,0.00,,,0.01,Wunderground v.1.15,2013-08-25 19:34:00,
2013-08-25 15:35:00,79.3,52.9,30.31,NW,309,1.0,9.0,40,0.00,,,0.01,Wunderground v.1.15,2013-08-25 19:35:00,
2013-08-25 15:39:00,79.6,52.5,30.31,South,186,3.0,9.0,39,0.00,,,0.01,Wunderground v.1.15,2013-08-25 19:39:00,
2013-08-25 15:40:00,79.5,51.7,30.31,SSW,213,4.0,9.0,38,0.00,,,0.01,Wunderground v.1.15,2013-08-25 19:40:00,
2013-08-25 15:41:00,79.5,50.9,30.31,WSW,238,5.0,9.0,37,0.00,,,0.01,Wunderground v.1.15,2013-08-25 19:41:00,
2013-08-25 15:44:00,79.3,51.5,30.31,SSW,195,2.0,9.0,38,0.00,,,0.01,Wunderground v.1.15,2013-08-25 19:44:00,
2013-08-25 15:45:00,79.3,50.8,30.31,SW,225,4.0,9.0,37,0.00,,,0.01,Wunderground v.1.15,2013-08-25 19:45:00,
2013-08-25 15:46:00,79.4,50.9,30.31,SW,222,5.0,9.0,37,0.00,,,0.01,Wunderground v.1.15,2013-08-25 19:46:00,
2013-08-25 15:49:00,79.4,50.9,30.30,South,180,2.0,9.0,37,0.00,,,0.01,Wunderground v.1.15,2013-08-25 19:49:00,
2013-08-25 15:50:00,79.4,50.1,30.30,SW,227,2.0,9.0,36,0.00,,,0.01,Wunderground v.1.15,2013-08-25 19:50:00,
2013-08-25 15:51:00,79.4,50.1,30.30,SW,223,2.0,9.0,36,0.00,,,0.01,Wunderground v.1.15,2013-08-25 19:51:00,
2013-08-25 15:54:00,79.6,50.3,30.30,South,173,2.0,9.0,36,0.00,,,0.01,Wunderground v.1.15,2013-08-25 19:54:00,
2013-08-25 15:55:00,79.7,50.4,30.30,SW,230,1.0,9.0,36,0.00,,,0.01,Wunderground v.1.15,2013-08-25 19:55:00,
2013-08-25 15:56:00,79.8,49.7,30.30,SW,225,5.0,9.0,35,0.00,,,0.01,Wunderground v.1.15,2013-08-25 19:56:00,
2013-08-25 15:57:00,79.7,51.1,30.30,WSW,240,4.0,10.0,37,0.00,,,0.01,Wunderground v.1.15,2013-08-25 19:57:00,
2013-08-25 15:59:00,79.6,51.0,30.30,South,181,3.0,10.0,37,0.00,,,0.01,Wunderground v.1.15,2013-08-25 19:59:00,
2013-08-25 16:00:00,79.6,51.0,30.30,South,170,4.0,10.0,37,0.00,,,0.01,Wunderground v.1.15,2013-08-25 20:00:00,
2013-08-25 16:01:00,79.6,51.0,30.30,South,185,2.0,10.0,37,0.00,,,0.01,Wunderground v.1.15,2013-08-25 20:01:00,
2013-08-25 16:02:00,79.6,50.3,30.30,SSW,199,1.0,10.0,36,0.00,,,0.01,Wunderground v.1.15,2013-08-25 20:02:00,
2013-08-25 16:04:00,79.6,51.0,30.30,SSW,196,1.0,10.0,37,0.00,,,0.01,Wunderground v.1.15,2013-08-25 20:04:00,
2013-08-25 16:06:00,79.8,51.2,30.30,SSE,153,3.0,10.0,37,0.00,,,0.01,Wunderground v.1.15,2013-08-25 20:06:00,
2013-08-25 16:07:00,80.0,51.4,30.29,SSW,198,2.0,4.0,37,0.00,,,0.01,Wunderground v.1.15,2013-08-25 20:07:00,
2013-08-25 16:10:00,80.4,52.5,30.29,SSW,193,3.0,6.0,38,0.00,,,0.01,Wunderground v.1.15,2013-08-25 20:10:00,
2013-08-25 16:11:00,80.4,51.7,30.29,SW,229,4.0,6.0,37,0.00,,,0.01,Wunderground v.1.15,2013-08-25 20:11:00,
2013-08-25 16:12:00,79.8,51.9,30.29,WNW,297,3.0,10.0,38,0.00,,,0.01,Wunderground v.1.15,2013-08-25 20:12:00,
2013-08-25 16:15:00,79.8,51.9,30.29,NW,309,1.0,10.0,38,0.00,,,0.01,Wunderground v.1.15,2013-08-25 20:15:00,
2013-08-25 16:16:00,79.9,52.0,30.29,SW,221,1.0,10.0,38,0.00,,,0.01,Wunderground v.1.15,2013-08-25 20:16:00,
2013-08-25 16:18:00,80.1,53.6,30.29,SSW,195,1.0,6.0,40,0.00,,,0.01,Wunderground v.1.15,2013-08-25 20:18:00,
2013-08-25 16:20:00,80.1,52.9,30.29,WSW,243,3.0,7.0,39,0.00,,,0.01,Wunderground v.1.15,2013-08-25 20:20:00,
2013-08-25 16:21:00,80.0,52.8,30.29,SSW,211,2.0,7.0,39,0.00,,,0.01,Wunderground v.1.15,2013-08-25 20:21:00,
2013-08-25 16:22:00,79.9,53.4,30.29,West,261,2.0,7.0,40,0.00,,,0.01,Wunderground v.1.15,2013-08-25 20:22:00,
2013-08-25 16:23:00,79.9,54.1,30.29,SSW,194,3.0,7.0,41,0.00,,,0.01,Wunderground v.1.15,2013-08-25 20:23:00,
2013-08-25 16:25:00,79.8,53.3,30.29,SW,227,0.0,9.0,40,0.00,,,0.01,Wunderground v.1.15,2013-08-25 20:25:00,
2013-08-25 16:26:00,79.9,53.4,30.29,SW,228,2.0,9.0,40,0.00,,,0.01,Wunderground v.1.15,2013-08-25 20:26:00,
2013-08-25 16:27:00,80.0,54.2,30.29,WSW,237,1.0,3.0,41,0.00,,,0.01,Wunderground v.1.15,2013-08-25 20:27:00,
2013-08-25 16:28:00,80.2,55.0,30.29,SSW,206,1.0,5.0,42,0.00,,,0.01,Wunderground v.1.15,2013-08-25 20:28:00,
2013-08-25 16:31:00,79.9,54.8,30.29,SSE,164,6.0,8.0,42,0.00,,,0.01,Wunderground v.1.15,2013-08-25 20:31:00,
2013-08-25 16:32:00,79.8,55.9,30.29,SSE,159,7.0,8.0,44,0.00,,,0.01,Wunderground v.1.15,2013-08-25 20:32:00,
2013-08-25 16:33:00,79.8,55.9,30.29,SSE,148,0.0,8.0,44,0.00,,,0.01,Wunderground v.1.15,2013-08-25 20:33:00,
2013-08-25 16:36:00,80.1,56.8,30.29,SSE,168,1.0,8.0,45,0.00,,,0.01,Wunderground v.1.15,2013-08-25 20:36:00,
2013-08-25 16:37:00,80.0,56.1,30.29,SSW,198,2.0,4.0,44,0.00,,,0.01,Wunderground v.1.15,2013-08-25 20:37:00,
2013-08-25 16:38:00,80.0,56.1,30.29,SW,235,2.0,4.0,44,0.00,,,0.01,Wunderground v.1.15,2013-08-25 20:38:00,
2013-08-25 16:41:00,79.8,55.9,30.29,South,182,2.0,5.0,44,0.00,,,0.01,Wunderground v.1.15,2013-08-25 20:41:00,
2013-08-25 16:42:00,79.8,55.9,30.29,SSW,207,6.0,6.0,44,0.00,,,0.01,Wunderground v.1.15,2013-08-25 20:42:00,
2013-08-25 16:43:00,79.6,56.4,30.29,SW,220,3.0,6.0,45,0.00,,,0.01,Wunderground v.1.15,2013-08-25 20:43:00,
2013-08-25 16:46:00,79.3,54.9,30.29,WSW,237,4.0,4.0,43,0.00,,,0.01,Wunderground v.1.15,2013-08-25 20:46:00,
2013-08-25 16:47:00,79.2,54.8,30.29,WSW,245,2.0,4.0,43,0.00,,,0.01,Wunderground v.1.15,2013-08-25 20:47:00,
2013-08-25 16:48:00,79.1,54.7,30.29,SSW,211,2.0,8.0,43,0.00,,,0.01,Wunderground v.1.15,2013-08-25 20:48:00,
2013-08-25 16:49:00,78.9,55.1,30.29,SE,146,3.0,8.0,44,0.00,,,0.01,Wunderground v.1.15,2013-08-25 20:49:00,
2013-08-25 16:52:00,78.6,54.9,30.29,SSW,208,4.0,8.0,44,0.00,,,0.01,Wunderground v.1.15,2013-08-25 20:52:00,
2013-08-25 16:53:00,78.5,54.8,30.29,WSW,242,4.0,9.0,44,0.00,,,0.01,Wunderground v.1.15,2013-08-25 20:53:00,
2013-08-25 16:54:00,78.4,54.7,30.29,West,263,8.0,10.0,44,0.00,,,0.01,Wunderground v.1.15,2013-08-25 20:54:00,
2013-08-25 16:57:00,78.0,54.3,30.29,South,173,0.0,6.0,44,0.00,,,0.01,Wunderground v.1.15,2013-08-25 20:57:00,
2013-08-25 16:58:00,78.1,54.4,30.28,South,180,2.0,6.0,44,0.00,,,0.01,Wunderground v.1.15,2013-08-25 20:58:00,
2013-08-25 16:59:00,78.2,55.1,30.28,SW,231,2.0,6.0,45,0.00,,,0.01,Wunderground v.1.15,2013-08-25 20:59:00,
2013-08-25 17:02:00,78.3,55.2,30.28,SSW,204,3.0,6.0,45,0.00,,,0.01,Wunderground v.1.15,2013-08-25 21:02:00,
2013-08-25 17:03:00,78.3,55.2,30.28,SSW,204,2.0,6.0,45,0.00,,,0.01,Wunderground v.1.15,2013-08-25 21:03:00,
2013-08-25 17:04:00,78.5,55.4,30.28,SSW,209,0.0,6.0,45,0.00,,,0.01,Wunderground v.1.15,2013-08-25 21:04:00,
2013-08-25 17:07:00,79.2,55.4,30.28,SSW,192,1.0,4.0,44,0.00,,,0.01,Wunderground v.1.15,2013-08-25 21:07:00,
2013-08-25 17:08:00,79.2,55.4,30.28,SSW,192,1.0,4.0,44,0.00,,,0.01,Wunderground v.1.15,2013-08-25 21:08:00,
2013-08-25 17:09:00,79.4,55.6,30.28,SSW,193,2.0,4.0,44,0.00,,,0.01,Wunderground v.1.15,2013-08-25 21:09:00,
2013-08-25 17:12:00,79.7,54.6,30.28,SW,228,2.0,4.0,42,0.00,,,0.01,Wunderground v.1.15,2013-08-25 21:12:00,
2013-08-25 17:13:00,79.7,54.6,30.28,SW,228,1.0,4.0,42,0.00,,,0.01,Wunderground v.1.15,2013-08-25 21:13:00,
2013-08-25 17:14:00,79.8,55.3,30.28,SW,228,2.0,4.0,43,0.00,,,0.01,Wunderground v.1.15,2013-08-25 21:14:00,
2013-08-25 17:17:00,79.5,55.0,30.28,WSW,240,5.0,6.0,43,0.00,,,0.01,Wunderground v.1.15,2013-08-25 21:17:00,
2013-08-25 17:18:00,79.5,55.0,30.28,SSW,208,6.0,8.0,43,0.00,,,0.01,Wunderground v.1.15,2013-08-25 21:18:00,
2013-08-25 17:19:00,79.3,54.2,30.28,West,271,7.0,8.0,42,0.00,,,0.01,Wunderground v.1.15,2013-08-25 21:19:00,
2013-08-25 17:23:00,78.9,55.1,30.28,WSW,237,2.0,8.0,44,0.00,,,0.01,Wunderground v.1.15,2013-08-25 21:23:00,
2013-08-25 17:24:00,78.9,54.5,30.28,SW,232,1.0,8.0,43,0.00,,,0.01,Wunderground v.1.15,2013-08-25 21:24:00,
2013-08-25 17:28:00,78.7,54.3,30.28,South,187,1.0,3.0,43,0.00,,,0.01,Wunderground v.1.15,2013-08-25 21:28:00,
2013-08-25 17:29:00,78.8,55.0,30.28,South,187,2.0,3.0,44,0.00,,,0.01,Wunderground v.1.15,2013-08-25 21:29:00,
2013-08-25 17:30:00,78.8,54.4,30.28,SSW,200,4.0,6.0,43,0.00,,,0.01,Wunderground v.1.15,2013-08-25 21:30:00,
2013-08-25 17:33:00,78.9,53.9,30.28,SSW,199,5.0,7.0,42,0.00,,,0.01,Wunderground v.1.15,2013-08-25 21:33:00,
2013-08-25 17:34:00,78.8,53.8,30.27,SW,229,4.0,7.0,42,0.00,,,0.01,Wunderground v.1.15,2013-08-25 21:34:00,
2013-08-25 17:35:00,78.6,54.2,30.27,WSW,240,2.0,7.0,43,0.00,,,0.01,Wunderground v.1.15,2013-08-25 21:35:00,
2013-08-25 17:38:00,78.2,53.9,30.27,SW,226,0.0,6.0,43,0.00,,,0.01,Wunderground v.1.15,2013-08-25 21:38:00,
2013-08-25 17:39:00,78.2,53.9,30.27,SW,226,1.0,6.0,43,0.00,,,0.01,Wunderground v.1.15,2013-08-25 21:39:00,
2013-08-25 17:40:00,78.3,53.3,30.27,SW,226,1.0,6.0,42,0.00,,,0.01,Wunderground v.1.15,2013-08-25 21:40:00,
2013-08-25 17:43:00,78.7,54.3,30.27,South,189,2.0,6.0,43,0.00,,,0.01,Wunderground v.1.15,2013-08-25 21:43:00,
2013-08-25 17:44:00,78.6,54.2,30.27,SSW,194,3.0,6.0,43,0.00,,,0.01,Wunderground v.1.15,2013-08-25 21:44:00,
2013-08-25 17:45:00,78.5,52.8,30.27,SSW,196,3.0,6.0,41,0.00,,,0.01,Wunderground v.1.15,2013-08-25 21:45:00,
2013-08-25 17:48:00,78.0,52.4,30.27,SSW,202,2.0,9.0,41,0.00,,,0.01,Wunderground v.1.15,2013-08-25 21:48:00,
2013-08-25 17:49:00,78.0,52.4,30.27,SSW,202,2.0,9.0,41,0.00,,,0.01,Wunderground v.1.15,2013-08-25 21:49:00,
2013-08-25 17:50:00,78.0,53.0,30.27,SW,215,3.0,9.0,42,0.00,,,0.01,Wunderground v.1.15,2013-08-25 21:50:00,
2013-08-25 17:53:00,77.9,53.6,30.27,SW,236,3.0,9.0,43,0.00,,,0.01,Wunderground v.1.15,2013-08-25 21:53:00,
2013-08-25 17:54:00,77.9,53.6,30.27,SW,236,3.0,9.0,43,0.00,,,0.01,Wunderground v.1.15,2013-08-25 21:54:00,
2013-08-25 17:55:00,77.7,52.8,30.27,SSW,209,3.0,9.0,42,0.00,,,0.01,Wunderground v.1.15,2013-08-25 21:55:00,
2013-08-25 17:59:00,77.5,53.2,30.27,SW,223,1.0,5.0,43,0.00,,,0.01,Wunderground v.1.15,2013-08-25 21:59:00,
2013-08-25 18:00:00,77.4,52.5,30.27,West,261,1.0,5.0,42,0.00,,,0.01,Wunderground v.1.15,2013-08-25 22:00:00,
2013-08-25 18:04:00,77.2,51.7,30.27,SW,225,4.0,9.0,41,0.00,,,0.01,Wunderground v.1.15,2013-08-25 22:04:00,
2013-08-25 18:05:00,77.1,51.6,30.27,WSW,252,3.0,9.0,41,0.00,,,0.01,Wunderground v.1.15,2013-08-25 22:05:00,
2013-08-25 18:06:00,77.0,52.1,30.27,WSW,252,1.0,9.0,42,0.00,,,0.01,Wunderground v.1.15,2013-08-25 22:06:00,
2013-08-25 18:09:00,76.9,52.1,30.27,SSW,201,0.0,7.0,42,0.00,,,0.01,Wunderground v.1.15,2013-08-25 22:09:00,
2013-08-25 18:10:00,76.9,52.7,30.27,SSW,202,0.0,7.0,43,0.00,,,0.01,Wunderground v.1.15,2013-08-25 22:10:00,
2013-08-25 18:11:00,77.0,52.1,30.27,SSW,213,0.0,7.0,42,0.00,,,0.01,Wunderground v.1.15,2013-08-25 22:11:00,
2013-08-25 18:14:00,77.1,52.2,30.27,SW,215,3.0,7.0,42,0.00,,,0.01,Wunderground v.1.15,2013-08-25 22:14:00,
2013-08-25 18:15:00,77.1,52.2,30.27,SW,215,2.0,7.0,42,0.00,,,0.01,Wunderground v.1.15,2013-08-25 22:15:00,
2013-08-25 18:16:00,77.1,52.2,30.27,SW,215,1.0,7.0,42,0.00,,,0.01,Wunderground v.1.15,2013-08-25 22:16:00,
2013-08-25 18:19:00,77.0,51.5,30.26,SW,218,1.0,4.0,41,0.00,,,0.01,Wunderground v.1.15,2013-08-25 22:19:00,
2013-08-25 18:20:00,77.0,52.1,30.26,SW,218,1.0,4.0,42,0.00,,,0.01,Wunderground v.1.15,2013-08-25 22:20:00,
2013-08-25 18:21:00,77.0,52.8,30.26,SW,218,1.0,4.0,43,0.00,,,0.01,Wunderground v.1.15,2013-08-25 22:21:00,
2013-08-25 18:22:00,76.9,52.7,30.26,SW,218,0.0,4.0,43,0.00,,,0.01,Wunderground v.1.15,2013-08-25 22:22:00,
2013-08-25 18:24:00,76.9,52.7,30.26,SW,218,0.0,4.0,43,0.00,,,0.01,Wunderground v.1.15,2013-08-25 22:24:00,
2013-08-25 18:25:00,76.9,52.7,30.26,SW,218,1.0,4.0,43,0.00,,,0.01,Wunderground v.1.15,2013-08-25 22:25:00,
2013-08-25 18:26:00,76.9,52.7,30.26,SW,218,0.0,4.0,43,0.00,,,0.01,Wunderground v.1.15,2013-08-25 22:26:00,
2013-08-25 18:27:00,76.9,52.7,30.26,SW,218,0.0,1.0,43,0.00,,,0.01,Wunderground v.1.15,2013-08-25 22:27:00,
2013-08-25 18:29:00,76.9,53.3,30.26,SW,218,1.0,3.0,44,0.00,,,0.01,Wunderground v.1.15,2013-08-25 22:29:00,
2013-08-25 18:30:00,76.8,53.2,30.26,SW,218,0.0,3.0,44,0.00,,,0.01,Wunderground v.1.15,2013-08-25 22:30:00,
2013-08-25 18:31:00,76.8,53.2,30.26,SW,218,0.0,3.0,44,0.00,,,0.01,Wunderground v.1.15,2013-08-25 22:31:00,
2013-08-25 18:32:00,76.8,53.2,30.26,SW,218,0.0,3.0,44,0.00,,,0.01,Wunderground v.1.15,2013-08-25 22:32:00,
2013-08-25 18:34:00,76.8,53.2,30.26,SW,218,2.0,3.0,44,0.00,,,0.01,Wunderground v.1.15,2013-08-25 22:34:00,
2013-08-25 18:35:00,76.7,53.1,30.26,SW,218,1.0,3.0,44,0.00,,,0.01,Wunderground v.1.15,2013-08-25 22:35:00,
2013-08-25 18:36:00,76.7,53.1,30.25,SW,218,0.0,1.0,44,0.00,,,0.01,Wunderground v.1.15,2013-08-25 22:36:00,
2013-08-25 18:37:00,76.7,53.1,30.25,SW,218,0.0,1.0,44,0.00,,,0.01,Wunderground v.1.15,2013-08-25 22:37:00,
2013-08-25 18:38:00,76.7,53.1,30.25,SW,218,2.0,2.0,44,0.00,,,0.01,Wunderground v.1.15,2013-08-25 22:38:00,
2013-08-25 18:39:00,76.5,53.6,30.25,SW,218,2.0,2.0,45,0.00,,,0.01,Wunderground v.1.15,2013-08-25 22:39:00,
2013-08-25 18:40:00,76.4,52.9,30.25,SW,218,1.0,3.0,44,0.00,,,0.01,Wunderground v.1.15,2013-08-25 22:40:00,
2013-08-25 18:42:00,76.3,54.0,30.25,SW,218,0.0,3.0,46,0.00,,,0.01,Wunderground v.1.15,2013-08-25 22:42:00,
2013-08-25 18:43:00,76.2,53.9,30.25,SW,218,0.0,3.0,46,0.00,,,0.01,Wunderground v.1.15,2013-08-25 22:43:00,
2013-08-25 18:45:00,76.1,53.8,30.25,SW,218,1.0,3.0,46,0.00,,,0.01,Wunderground v.1.15,2013-08-25 22:45:00,
2013-08-25 18:47:00,75.9,54.2,30.25,SW,218,0.0,2.0,47,0.00,,,0.01,Wunderground v.1.15,2013-08-25 22:47:00,
2013-08-25 18:48:00,75.8,53.5,30.25,SW,218,0.0,2.0,46,0.00,,,0.01,Wunderground v.1.15,2013-08-25 22:48:00,
2013-08-25 18:50:00,75.5,53.3,30.25,SW,218,1.0,2.0,46,0.00,,,0.01,Wunderground v.1.15,2013-08-25 22:50:00,
2013-08-25 18:52:00,75.2,53.0,30.25,SW,218,2.0,2.0,46,0.00,,,0.01,Wunderground v.1.15,2013-08-25 22:52:00,
2013-08-25 18:53:00,75.1,52.9,30.25,SW,218,1.0,2.0,46,0.00,,,0.01,Wunderground v.1.15,2013-08-25 22:53:00,
2013-08-25 18:55:00,74.6,53.6,30.25,SW,218,0.0,2.0,48,0.00,,,0.01,Wunderground v.1.15,2013-08-25 22:55:00,
2013-08-25 18:56:00,74.6,53.6,30.25,SW,218,0.0,2.0,48,0.00,,,0.01,Wunderground v.1.15,2013-08-25 22:56:00,
2013-08-25 18:57:00,74.3,53.3,30.25,SW,218,1.0,1.0,48,0.00,,,0.01,Wunderground v.1.15,2013-08-25 22:57:00,
2013-08-25 18:58:00,74.2,53.2,30.25,SW,218,0.0,1.0,48,0.00,,,0.01,Wunderground v.1.15,2013-08-25 22:58:00,
2013-08-25 19:00:00,73.7,53.9,30.25,SW,218,0.0,1.0,50,0.00,,,0.01,Wunderground v.1.15,2013-08-25 23:00:00,
2013-08-25 19:01:00,73.7,54.4,30.25,SW,218,0.0,1.0,51,0.00,,,0.01,Wunderground v.1.15,2013-08-25 23:01:00,
2013-08-25 19:03:00,73.3,54.6,30.25,SW,218,1.0,1.0,52,0.00,,,0.01,Wunderground v.1.15,2013-08-25 23:03:00,
2013-08-25 19:05:00,72.6,55.5,30.25,SW,218,0.0,1.0,55,0.00,,,0.01,Wunderground v.1.15,2013-08-25 23:05:00,
2013-08-25 19:06:00,72.6,55.5,30.25,SW,218,0.0,1.0,55,0.00,,,0.01,Wunderground v.1.15,2013-08-25 23:06:00,
2013-08-25 19:08:00,72.2,55.6,30.25,SW,218,1.0,1.0,56,0.00,,,0.01,Wunderground v.1.15,2013-08-25 23:08:00,
2013-08-25 19:10:00,71.8,55.7,30.25,SW,218,0.0,1.0,57,0.00,,,0.01,Wunderground v.1.15,2013-08-25 23:10:00,
2013-08-25 19:11:00,71.8,55.7,30.25,SW,218,0.0,1.0,57,0.00,,,0.01,Wunderground v.1.15,2013-08-25 23:11:00,
2013-08-25 19:13:00,71.9,60.8,30.25,SW,218,0.0,1.0,68,0.00,,,0.01,Wunderground v.1.15,2013-08-25 23:13:00,
2013-08-25 19:16:00,71.6,57.4,30.25,SW,218,0.0,1.0,61,0.00,,,0.01,Wunderground v.1.15,2013-08-25 23:16:00,
2013-08-25 19:18:00,71.3,60.2,30.25,SW,218,0.0,0.0,68,0.00,,,0.01,Wunderground v.1.15,2013-08-25 23:18:00,
2013-08-25 19:19:00,71.6,62.5,30.25,SW,218,0.0,0.0,73,0.00,,,0.01,Wunderground v.1.15,2013-08-25 23:19:00,
2013-08-25 19:21:00,71.7,63.4,30.24,SW,218,0.0,0.0,75,0.00,,,0.01,Wunderground v.1.15,2013-08-25 23:21:00,
2013-08-25 19:23:00,71.6,57.9,30.24,SW,218,0.0,0.0,62,0.00,,,0.01,Wunderground v.1.15,2013-08-25 23:23:00,
2013-08-25 19:24:00,71.6,58.8,30.24,SW,218,0.0,0.0,64,0.00,,,0.01,Wunderground v.1.15,2013-08-25 23:24:00,
2013-08-25 19:26:00,71.4,57.2,30.24,SW,218,0.0,0.0,61,0.00,,,0.01,Wunderground v.1.15,2013-08-25 23:26:00,
2013-08-25 19:29:00,71.1,57.0,30.25,SW,218,0.0,0.0,61,0.00,,,0.01,Wunderground v.1.15,2013-08-25 23:29:00,
2013-08-25 19:30:00,71.0,57.3,30.24,SW,218,0.0,0.0,62,0.00,,,0.01,Wunderground v.1.15,2013-08-25 23:30:00,
2013-08-25 19:31:00,70.8,57.1,30.24,SW,218,0.0,0.0,62,0.00,,,0.01,Wunderground v.1.15,2013-08-25 23:31:00,
2013-08-25 19:34:00,70.2,56.6,30.24,SW,218,0.0,1.0,62,0.00,,,0.01,Wunderground v.1.15,2013-08-25 23:34:00,
2013-08-25 19:35:00,70.0,56.4,30.24,SW,218,0.0,1.0,62,0.00,,,0.01,Wunderground v.1.15,2013-08-25 23:35:00,
2013-08-25 19:36:00,69.7,56.5,30.24,SW,218,0.0,0.0,63,0.00,,,0.01,Wunderground v.1.15,2013-08-25 23:36:00,
2013-08-25 19:39:00,69.1,55.1,30.24,SW,218,2.0,3.0,61,0.00,,,0.01,Wunderground v.1.15,2013-08-25 23:39:00,
2013-08-25 19:40:00,68.8,54.8,30.24,SW,218,0.0,3.0,61,0.00,,,0.01,Wunderground v.1.15,2013-08-25 23:40:00,
2013-08-25 19:41:00,68.7,54.7,30.24,SW,218,1.0,3.0,61,0.00,,,0.01,Wunderground v.1.15,2013-08-25 23:41:00,
2013-08-25 19:42:00,68.6,55.1,30.24,SW,218,1.0,3.0,62,0.00,,,0.01,Wunderground v.1.15,2013-08-25 23:42:00,
2013-08-25 19:44:00,68.5,55.0,30.24,SW,218,0.0,3.0,62,0.00,,,0.01,Wunderground v.1.15,2013-08-25 23:44:00,
2013-08-25 19:45:00,68.4,54.9,30.24,SW,218,1.0,3.0,62,0.00,,,0.01,Wunderground v.1.15,2013-08-25 23:45:00,
2013-08-25 19:46:00,68.3,54.8,30.24,SW,218,0.0,1.0,62,0.00,,,0.01,Wunderground v.1.15,2013-08-25 23:46:00,
2013-08-25 19:47:00,68.3,54.8,30.25,SW,218,0.0,1.0,62,0.00,,,0.01,Wunderground v.1.15,2013-08-25 23:47:00,
2013-08-25 19:49:00,68.3,54.8,30.25,SW,218,0.0,2.0,62,0.00,,,0.01,Wunderground v.1.15,2013-08-25 23:49:00,
2013-08-25 19:51:00,68.2,54.7,30.25,SW,218,1.0,2.0,62,0.00,,,0.01,Wunderground v.1.15,2013-08-25 23:51:00,
2013-08-25 19:52:00,68.2,54.7,30.25,SW,218,0.0,2.0,62,0.00,,,0.01,Wunderground v.1.15,2013-08-25 23:52:00,
2013-08-25 19:53:00,68.1,55.0,30.25,SW,218,0.0,2.0,63,0.00,,,0.01,Wunderground v.1.15,2013-08-25 23:53:00,
2013-08-25 19:54:00,68.1,55.0,30.25,SW,218,1.0,2.0,63,0.00,,,0.01,Wunderground v.1.15,2013-08-25 23:54:00,
2013-08-25 19:56:00,68.1,55.0,30.25,SW,218,0.0,0.0,63,0.00,,,0.01,Wunderground v.1.15,2013-08-25 23:56:00,
2013-08-25 19:57:00,68.0,55.4,30.25,SW,218,0.0,1.0,64,0.00,,,0.01,Wunderground v.1.15,2013-08-25 23:57:00,
2013-08-25 19:58:00,68.0,55.4,30.25,SW,218,0.0,1.0,64,0.00,,,0.01,Wunderground v.1.15,2013-08-25 23:58:00,
2013-08-25 19:59:00,68.0,55.4,30.25,SW,219,2.0,3.0,64,0.00,,,0.01,Wunderground v.1.15,2013-08-25 23:59:00,
2013-08-25 20:01:00,67.9,55.3,30.25,SW,219,0.0,3.0,64,0.00,,,0.01,Wunderground v.1.15,2013-08-26 00:01:00,
2013-08-25 20:02:00,67.9,55.3,30.25,SW,219,1.0,4.0,64,0.00,,,0.01,Wunderground v.1.15,2013-08-26 00:02:00,
2013-08-25 20:03:00,67.9,55.3,30.25,SW,219,0.0,4.0,64,0.00,,,0.01,Wunderground v.1.15,2013-08-26 00:03:00,
2013-08-25 20:04:00,67.9,55.3,30.25,SW,219,0.0,4.0,64,0.00,,,0.01,Wunderground v.1.15,2013-08-26 00:04:00,
2013-08-25 20:06:00,67.8,55.6,30.25,SW,219,0.0,1.0,65,0.00,,,0.01,Wunderground v.1.15,2013-08-26 00:06:00,
2013-08-25 20:07:00,67.8,55.6,30.25,SW,219,1.0,1.0,65,0.00,,,0.01,Wunderground v.1.15,2013-08-26 00:07:00,
2013-08-25 20:08:00,67.7,55.5,30.25,SW,219,0.0,3.0,65,0.00,,,0.01,Wunderground v.1.15,2013-08-26 00:08:00,
2013-08-25 20:09:00,67.7,55.5,30.25,SW,219,0.0,3.0,65,0.00,,,0.01,Wunderground v.1.15,2013-08-26 00:09:00,
2013-08-25 20:10:00,67.7,55.5,30.25,SW,219,0.0,3.0,65,0.00,,,0.01,Wunderground v.1.15,2013-08-26 00:10:00,
2013-08-25 20:11:00,67.6,55.4,30.25,SW,219,0.0,3.0,65,0.00,,,0.01,Wunderground v.1.15,2013-08-26 00:11:00,
2013-08-25 20:12:00,67.6,55.4,30.25,SSW,209,0.0,4.0,65,0.00,,,0.01,Wunderground v.1.15,2013-08-26 00:12:00,
2013-08-25 20:14:00,67.5,55.7,30.25,SSW,209,2.0,4.0,66,0.00,,,0.01,Wunderground v.1.15,2013-08-26 00:14:00,
2013-08-25 20:15:00,67.5,55.7,30.25,SSW,209,2.0,4.0,66,0.00,,,0.01,Wunderground v.1.15,2013-08-26 00:15:00,
2013-08-25 20:17:00,67.5,55.7,30.25,SSW,213,0.0,2.0,66,0.00,,,0.01,Wunderground v.1.15,2013-08-26 00:17:00,
2013-08-25 20:18:00,67.5,55.7,30.25,SSW,213,1.0,2.0,66,0.00,,,0.01,Wunderground v.1.15,2013-08-26 00:18:00,
2013-08-25 20:20:00,67.4,55.6,30.25,SSW,213,2.0,2.0,66,0.00,,,0.01,Wunderground v.1.15,2013-08-26 00:20:00,
2013-08-25 20:22:00,67.2,55.9,30.25,SSW,213,1.0,2.0,67,0.00,,,0.01,Wunderground v.1.15,2013-08-26 00:22:00,
2013-08-25 20:23:00,67.2,55.9,30.25,SSW,213,0.0,2.0,67,0.00,,,0.01,Wunderground v.1.15,2013-08-26 00:23:00,
2013-08-25 20:25:00,67.1,55.8,30.25,SSW,213,1.0,3.0,67,0.00,,,0.01,Wunderground v.1.15,2013-08-26 00:25:00,
2013-08-25 20:27:00,67.0,56.1,30.26,SSW,213,1.0,1.0,68,0.00,,,0.01,Wunderground v.1.15,2013-08-26 00:27:00,
2013-08-25 20:28:00,67.0,56.1,30.26,SSW,213,0.0,2.0,68,0.00,,,0.01,Wunderground v.1.15,2013-08-26 00:28:00,
2013-08-25 20:30:00,66.9,56.0,30.26,SSW,213,0.0,2.0,68,0.00,,,0.01,Wunderground v.1.15,2013-08-26 00:30:00,
2013-08-25 20:32:00,66.8,55.9,30.26,SSW,213,1.0,2.0,68,0.00,,,0.01,Wunderground v.1.15,2013-08-26 00:32:00,
2013-08-25 20:33:00,66.8,55.9,30.26,SSW,213,1.0,2.0,68,0.00,,,0.01,Wunderground v.1.15,2013-08-26 00:33:00,
2013-08-25 20:35:00,66.7,55.8,30.26,SSW,213,1.0,2.0,68,0.00,,,0.01,Wunderground v.1.15,2013-08-26 00:35:00,
2013-08-25 20:36:00,66.6,55.7,30.26,SSW,213,0.0,2.0,68,0.00,,,0.01,Wunderground v.1.15,2013-08-26 00:36:00,
2013-08-25 20:37:00,66.6,55.7,30.26,SSW,213,0.0,1.0,68,0.00,,,0.01,Wunderground v.1.15,2013-08-26 00:37:00,
2013-08-25 20:38:00,66.5,56.0,30.26,SSW,213,0.0,1.0,69,0.00,,,0.01,Wunderground v.1.15,2013-08-26 00:38:00,
2013-08-25 20:40:00,66.5,56.0,30.25,SSW,213,0.0,2.0,69,0.00,,,0.01,Wunderground v.1.15,2013-08-26 00:40:00,
2013-08-25 20:41:00,66.4,55.9,30.25,SSW,213,0.0,2.0,69,0.00,,,0.01,Wunderground v.1.15,2013-08-26 00:41:00,
2013-08-25 20:43:00,66.4,55.9,30.25,SSW,213,0.0,2.0,69,0.00,,,0.01,Wunderground v.1.15,2013-08-26 00:43:00,
2013-08-25 20:45:00,66.3,56.2,30.26,SSW,213,1.0,2.0,70,0.00,,,0.01,Wunderground v.1.15,2013-08-26 00:45:00,
2013-08-25 20:46:00,66.3,56.2,30.26,SSW,213,1.0,2.0,70,0.00,,,0.01,Wunderground v.1.15,2013-08-26 00:46:00,
2013-08-25 20:48:00,66.2,56.1,30.26,SSW,213,0.0,1.0,70,0.00,,,0.01,Wunderground v.1.15,2013-08-26 00:48:00,
2013-08-25 20:49:00,66.2,56.1,30.26,SSW,213,0.0,1.0,70,0.00,,,0.01,Wunderground v.1.15,2013-08-26 00:49:00,
2013-08-25 20:50:00,66.1,56.0,30.26,SSW,213,0.0,1.0,70,0.00,,,0.01,Wunderground v.1.15,2013-08-26 00:50:00,
2013-08-25 20:51:00,66.0,55.9,30.26,SSW,213,0.0,1.0,70,0.00,,,0.01,Wunderground v.1.15,2013-08-26 00:51:00,
2013-08-25 20:52:00,65.9,55.8,30.26,SSW,213,0.0,1.0,70,0.00,,,0.01,Wunderground v.1.15,2013-08-26 00:52:00,
2013-08-25 20:53:00,65.9,55.8,30.26,SSW,213,2.0,2.0,70,0.00,,,0.01,Wunderground v.1.15,2013-08-26 00:53:00,
2013-08-25 20:54:00,65.9,55.8,30.26,SSW,197,2.0,3.0,70,0.00,,,0.01,Wunderground v.1.15,2013-08-26 00:54:00,
2013-08-25 20:55:00,65.9,56.2,30.26,SSW,197,0.0,3.0,71,0.00,,,0.01,Wunderground v.1.15,2013-08-26 00:55:00,
2013-08-25 20:56:00,65.8,56.1,30.26,SSW,197,0.0,0.0,71,0.00,,,0.01,Wunderground v.1.15,2013-08-26 00:56:00,
2013-08-25 20:57:00,65.8,56.1,30.26,SSW,197,2.0,2.0,71,0.00,,,0.01,Wunderground v.1.15,2013-08-26 00:57:00,
2013-08-25 20:58:00,65.8,56.1,30.26,SSW,197,0.0,2.0,71,0.00,,,0.01,Wunderground v.1.15,2013-08-26 00:58:00,
2013-08-25 20:59:00,65.8,56.1,30.26,SSW,197,0.0,2.0,71,0.00,,,0.01,Wunderground v.1.15,2013-08-26 00:59:00,
2013-08-25 21:00:00,65.8,56.1,30.26,SSW,197,1.0,2.0,71,0.00,,,0.01,Wunderground v.1.15,2013-08-26 01:00:00,
2013-08-25 21:01:00,65.8,56.1,30.26,SSW,197,1.0,2.0,71,0.00,,,0.01,Wunderground v.1.15,2013-08-26 01:01:00,
2013-08-25 21:02:00,65.8,56.1,30.26,SSW,197,1.0,2.0,71,0.00,,,0.01,Wunderground v.1.15,2013-08-26 01:02:00,
2013-08-25 21:04:00,65.8,56.1,30.26,SSW,197,0.0,2.0,71,0.00,,,0.01,Wunderground v.1.15,2013-08-26 01:04:00,
2013-08-25 21:05:00,65.7,56.0,30.26,SSW,197,0.0,2.0,71,0.00,,,0.01,Wunderground v.1.15,2013-08-26 01:05:00,
2013-08-25 21:06:00,65.7,56.0,30.25,SSW,197,1.0,2.0,71,0.00,,,0.01,Wunderground v.1.15,2013-08-26 01:06:00,
2013-08-25 21:08:00,65.7,56.4,30.26,SSW,197,1.0,2.0,72,0.00,,,0.01,Wunderground v.1.15,2013-08-26 01:08:00,
2013-08-25 21:09:00,65.6,56.3,30.26,SSW,197,1.0,2.0,72,0.00,,,0.01,Wunderground v.1.15,2013-08-26 01:09:00,
2013-08-25 21:10:00,65.6,55.9,30.26,SSW,197,0.0,2.0,71,0.00,,,0.01,Wunderground v.1.15,2013-08-26 01:10:00,
2013-08-25 21:11:00,65.6,55.9,30.26,SSW,197,1.0,2.0,71,0.00,,,0.01,Wunderground v.1.15,2013-08-26 01:11:00,
2013-08-25 21:13:00,65.5,55.8,30.26,SSW,197,0.0,2.0,71,0.00,,,0.01,Wunderground v.1.15,2013-08-26 01:13:00,
2013-08-25 21:14:00,65.5,55.8,30.26,SSW,197,3.0,3.0,71,0.00,,,0.01,Wunderground v.1.15,2013-08-26 01:14:00,
2013-08-25 21:16:00,65.4,55.7,30.25,SSW,197,1.0,1.0,71,0.00,,,0.01,Wunderground v.1.15,2013-08-26 01:16:00,
2013-08-25 21:18:00,65.4,55.7,30.25,SSW,197,0.0,3.0,71,0.00,,,0.01,Wunderground v.1.15,2013-08-26 01:18:00,
2013-08-25 21:19:00,65.4,55.7,30.25,SSW,197,2.0,3.0,71,0.00,,,0.01,Wunderground v.1.15,2013-08-26 01:19:00,
2013-08-25 21:21:00,65.4,55.7,30.25,SSW,197,1.0,3.0,71,0.00,,,0.01,Wunderground v.1.15,2013-08-26 01:21:00,
2013-08-25 21:22:00,65.4,55.7,30.25,SSW,197,1.0,3.0,71,0.00,,,0.01,Wunderground v.1.15,2013-08-26 01:22:00,
2013-08-25 21:23:00,65.4,55.7,30.25,SSW,197,0.0,3.0,71,0.00,,,0.01,Wunderground v.1.15,2013-08-26 01:23:00,
2013-08-25 21:24:00,65.4,55.7,30.25,SSW,197,1.0,3.0,71,0.00,,,0.01,Wunderground v.1.15,2013-08-26 01:24:00,
2013-08-25 21:27:00,65.3,55.7,30.25,SSW,197,0.0,1.0,71,0.00,,,0.01,Wunderground v.1.15,2013-08-26 01:27:00,
2013-08-25 21:28:00,65.2,55.6,30.25,SSW,197,1.0,1.0,71,0.00,,,0.01,Wunderground v.1.15,2013-08-26 01:28:00,
2013-08-25 21:29:00,65.2,55.6,30.25,SSW,197,0.0,1.0,71,0.00,,,0.01,Wunderground v.1.15,2013-08-26 01:29:00,
2013-08-25 21:32:00,65.1,55.5,30.25,SSW,197,1.0,2.0,71,0.00,,,0.01,Wunderground v.1.15,2013-08-26 01:32:00,
2013-08-25 21:33:00,65.1,55.8,30.25,SSW,198,3.0,3.0,72,0.00,,,0.01,Wunderground v.1.15,2013-08-26 01:33:00,
2013-08-25 21:34:00,65.0,55.8,30.25,SW,224,1.0,3.0,72,0.00,,,0.01,Wunderground v.1.15,2013-08-26 01:34:00,
2013-08-25 21:37:00,64.9,55.7,30.25,SW,224,0.0,1.0,72,0.00,,,0.01,Wunderground v.1.15,2013-08-26 01:37:00,
2013-08-25 21:38:00,64.9,55.7,30.25,SW,224,2.0,3.0,72,0.00,,,0.01,Wunderground v.1.15,2013-08-26 01:38:00,
2013-08-25 21:39:00,64.8,55.6,30.25,SW,224,1.0,3.0,72,0.00,,,0.01,Wunderground v.1.15,2013-08-26 01:39:00,
2013-08-25 21:42:00,64.7,55.5,30.25,SW,224,0.0,3.0,72,0.00,,,0.01,Wunderground v.1.15,2013-08-26 01:42:00,
2013-08-25 21:43:00,64.7,55.5,30.26,SW,224,0.0,3.0,72,0.00,,,0.01,Wunderground v.1.15,2013-08-26 01:43:00,
2013-08-25 21:45:00,64.7,55.5,30.26,SSW,208,1.0,5.0,72,0.00,,,0.01,Wunderground v.1.15,2013-08-26 01:45:00,
2013-08-25 21:47:00,64.7,55.5,30.25,South,177,0.0,3.0,72,0.00,,,0.01,Wunderground v.1.15,2013-08-26 01:47:00,
2013-08-25 21:48:00,64.7,55.5,30.25,South,190,3.0,3.0,72,0.00,,,0.01,Wunderground v.1.15,2013-08-26 01:48:00,
2013-08-25 21:49:00,64.7,55.5,30.25,South,190,1.0,3.0,72,0.00,,,0.01,Wunderground v.1.15,2013-08-26 01:49:00,
2013-08-25 21:50:00,64.7,55.5,30.25,South,190,3.0,3.0,72,0.00,,,0.01,Wunderground v.1.15,2013-08-26 01:50:00,
2013-08-25 21:52:00,64.6,55.4,30.25,South,190,0.0,4.0,72,0.00,,,0.01,Wunderground v.1.15,2013-08-26 01:52:00,
2013-08-25 21:53:00,64.6,55.4,30.25,South,190,1.0,4.0,72,0.00,,,0.01,Wunderground v.1.15,2013-08-26 01:53:00,
2013-08-25 21:54:00,64.6,55.4,30.25,South,190,0.0,4.0,72,0.00,,,0.01,Wunderground v.1.15,2013-08-26 01:54:00,
2013-08-25 21:55:00,64.5,55.3,30.25,South,190,1.0,4.0,72,0.00,,,0.01,Wunderground v.1.15,2013-08-26 01:55:00,
2013-08-25 21:57:00,64.5,55.3,30.25,South,190,2.0,4.0,72,0.00,,,0.01,Wunderground v.1.15,2013-08-26 01:57:00,
2013-08-25 21:58:00,64.5,55.3,30.25,South,190,0.0,4.0,72,0.00,,,0.01,Wunderground v.1.15,2013-08-26 01:58:00,
2013-08-25 21:59:00,64.5,55.3,30.25,South,190,1.0,4.0,72,0.00,,,0.01,Wunderground v.1.15,2013-08-26 01:59:00,
2013-08-25 22:00:00,64.4,55.2,30.25,SW,219,0.0,7.0,72,0.00,,,0.01,Wunderground v.1.15,2013-08-26 02:00:00,
2013-08-25 22:01:00,64.4,55.2,30.25,SSW,212,3.0,7.0,72,0.00,,,0.01,Wunderground v.1.15,2013-08-26 02:01:00,
2013-08-25 22:02:00,64.4,55.2,30.25,SSW,212,1.0,7.0,72,0.00,,,0.01,Wunderground v.1.15,2013-08-26 02:02:00,
2013-08-25 22:03:00,64.4,55.6,30.25,SSW,211,2.0,7.0,73,0.00,,,0.01,Wunderground v.1.15,2013-08-26 02:03:00,
2013-08-25 22:04:00,64.4,55.6,30.25,SSW,211,2.0,7.0,73,0.00,,,0.01,Wunderground v.1.15,2013-08-26 02:04:00,
2013-08-25 22:05:00,64.4,55.6,30.25,SSW,211,3.0,7.0,73,0.00,,,0.01,Wunderground v.1.15,2013-08-26 02:05:00,
2013-08-25 22:06:00,64.4,55.6,30.25,SSW,211,1.0,7.0,73,0.00,,,0.01,Wunderground v.1.15,2013-08-26 02:06:00,
2013-08-25 22:07:00,64.3,55.5,30.25,SSW,211,2.0,2.0,73,0.00,,,0.01,Wunderground v.1.15,2013-08-26 02:07:00,
2013-08-25 22:08:00,64.3,55.5,30.25,SSW,211,1.0,4.0,73,0.00,,,0.01,Wunderground v.1.15,2013-08-26 02:08:00,
2013-08-25 22:09:00,64.3,55.5,30.25,SSW,211,2.0,4.0,73,0.00,,,0.01,Wunderground v.1.15,2013-08-26 02:09:00,
2013-08-25 22:10:00,64.3,55.5,30.25,SSW,210,2.0,4.0,73,0.00,,,0.01,Wunderground v.1.15,2013-08-26 02:10:00,
2013-08-25 22:11:00,64.3,55.5,30.25,SSW,202,4.0,4.0,73,0.00,,,0.01,Wunderground v.1.15,2013-08-26 02:11:00,
2013-08-25 22:13:00,64.3,55.5,30.25,SSW,200,1.0,4.0,73,0.00,,,0.01,Wunderground v.1.15,2013-08-26 02:13:00,
2013-08-25 22:14:00,64.3,55.5,30.25,SSW,202,2.0,4.0,73,0.00,,,0.01,Wunderground v.1.15,2013-08-26 02:14:00,
2013-08-25 22:16:00,64.3,55.5,30.25,South,187,0.0,4.0,73,0.00,,,0.01,Wunderground v.1.15,2013-08-26 02:16:00,
2013-08-25 22:18:00,64.3,55.5,30.25,South,187,4.0,5.0,73,0.00,,,0.01,Wunderground v.1.15,2013-08-26 02:18:00,
2013-08-25 22:19:00,64.3,55.5,30.25,South,188,2.0,5.0,73,0.00,,,0.01,Wunderground v.1.15,2013-08-26 02:19:00,
2013-08-25 22:21:00,64.3,55.5,30.25,South,191,1.0,5.0,73,0.00,,,0.01,Wunderground v.1.15,2013-08-26 02:21:00,
2013-08-25 22:23:00,64.3,55.5,30.25,SSW,192,3.0,5.0,73,0.00,,,0.01,Wunderground v.1.15,2013-08-26 02:23:00,
2013-08-25 22:24:00,64.3,55.5,30.25,South,190,3.0,5.0,73,0.00,,,0.01,Wunderground v.1.15,2013-08-26 02:24:00,
2013-08-25 22:26:00,64.3,55.5,30.25,SW,215,2.0,5.0,73,0.00,,,0.01,Wunderground v.1.15,2013-08-26 02:26:00,
2013-08-25 22:29:00,64.2,55.7,30.25,SSW,193,2.0,5.0,74,0.00,,,0.01,Wunderground v.1.15,2013-08-26 02:29:00,
2013-08-25 22:30:00,64.2,55.7,30.25,SSW,193,0.0,5.0,74,0.00,,,0.01,Wunderground v.1.15,2013-08-26 02:30:00,
2013-08-25 22:31:00,64.2,55.7,30.25,SSW,193,1.0,5.0,74,0.00,,,0.01,Wunderground v.1.15,2013-08-26 02:31:00,
2013-08-25 22:32:00,64.1,55.6,30.25,SSW,209,0.0,5.0,74,0.00,,,0.01,Wunderground v.1.15,2013-08-26 02:32:00,
2013-08-25 22:34:00,64.1,55.6,30.25,SSE,159,0.0,8.0,74,0.00,,,0.01,Wunderground v.1.15,2013-08-26 02:34:00,
2013-08-25 22:35:00,64.1,55.6,30.25,South,188,1.0,8.0,74,0.00,,,0.01,Wunderground v.1.15,2013-08-26 02:35:00,
2013-08-25 22:36:00,64.1,55.6,30.25,SW,236,4.0,4.0,74,0.00,,,0.01,Wunderground v.1.15,2013-08-26 02:36:00,
2013-08-25 22:37:00,64.1,55.6,30.25,WSW,237,3.0,5.0,74,0.00,,,0.01,Wunderground v.1.15,2013-08-26 02:37:00,
2013-08-25 22:39:00,64.1,55.6,30.25,SW,229,5.0,5.0,74,0.00,,,0.01,Wunderground v.1.15,2013-08-26 02:39:00,
2013-08-25 22:40:00,64.1,55.6,30.25,WSW,238,3.0,5.0,74,0.00,,,0.01,Wunderground v.1.15,2013-08-26 02:40:00,
2013-08-25 22:41:00,64.0,55.5,30.25,SW,215,3.0,5.0,74,0.00,,,0.01,Wunderground v.1.15,2013-08-26 02:41:00,
2013-08-25 22:42:00,64.1,55.6,30.25,South,181,3.0,6.0,74,0.00,,,0.01,Wunderground v.1.15,2013-08-26 02:42:00,
2013-08-25 22:44:00,64.0,55.5,30.24,SSW,197,2.0,6.0,74,0.00,,,0.01,Wunderground v.1.15,2013-08-26 02:44:00,
2013-08-25 22:45:00,64.0,55.5,30.24,SSW,198,2.0,6.0,74,0.00,,,0.01,Wunderground v.1.15,2013-08-26 02:45:00,
2013-08-25 22:46:00,63.9,55.4,30.24,SSW,198,3.0,3.0,74,0.00,,,0.01,Wunderground v.1.15,2013-08-26 02:46:00,
2013-08-25 22:47:00,63.9,55.8,30.24,SSW,199,0.0,4.0,75,0.00,,,0.01,Wunderground v.1.15,2013-08-26 02:47:00,
2013-08-25 22:49:00,63.9,55.8,30.24,SSW,202,2.0,7.0,75,0.00,,,0.01,Wunderground v.1.15,2013-08-26 02:49:00,
2013-08-25 22:50:00,63.9,55.8,30.24,South,190,1.0,7.0,75,0.00,,,0.01,Wunderground v.1.15,2013-08-26 02:50:00,
2013-08-25 22:51:00,63.9,55.8,30.24,SSW,210,3.0,7.0,75,0.00,,,0.01,Wunderground v.1.15,2013-08-26 02:51:00,
2013-08-25 22:52:00,63.9,55.8,30.24,SSW,210,3.0,7.0,75,0.00,,,0.01,Wunderground v.1.15,2013-08-26 02:52:00,
2013-08-25 22:54:00,63.8,55.7,30.24,SSW,210,2.0,8.0,75,0.00,,,0.01,Wunderground v.1.15,2013-08-26 02:54:00,
2013-08-25 22:55:00,63.8,55.7,30.24,SSW,212,1.0,8.0,75,0.00,,,0.01,Wunderground v.1.15,2013-08-26 02:55:00,
2013-08-25 22:56:00,63.8,55.7,30.24,SSW,212,1.0,2.0,75,0.00,,,0.01,Wunderground v.1.15,2013-08-26 02:56:00,
2013-08-25 22:57:00,63.8,55.7,30.24,SSW,212,2.0,2.0,75,0.00,,,0.01,Wunderground v.1.15,2013-08-26 02:57:00,
2013-08-25 22:58:00,63.8,55.7,30.24,SW,218,3.0,5.0,75,0.00,,,0.01,Wunderground v.1.15,2013-08-26 02:58:00,
2013-08-25 22:59:00,63.8,55.7,30.24,WSW,239,2.0,5.0,75,0.00,,,0.01,Wunderground v.1.15,2013-08-26 02:59:00,
2013-08-25 23:00:00,63.7,55.6,30.24,SW,229,2.0,5.0,75,0.00,,,0.01,Wunderground v.1.15,2013-08-26 03:00:00,
2013-08-25 23:01:00,63.7,55.6,30.24,SW,232,4.0,6.0,75,0.00,,,0.01,Wunderground v.1.15,2013-08-26 03:01:00,
2013-08-25 23:02:00,63.7,55.6,30.24,SW,236,4.0,6.0,75,0.00,,,0.01,Wunderground v.1.15,2013-08-26 03:02:00,
2013-08-25 23:03:00,63.7,55.6,30.24,SSE,166,0.0,7.0,75,0.00,,,0.01,Wunderground v.1.15,2013-08-26 03:03:00,
2013-08-25 23:04:00,63.7,55.6,30.24,WSW,245,4.0,7.0,75,0.00,,,0.01,Wunderground v.1.15,2013-08-26 03:04:00,
2013-08-25 23:06:00,63.7,55.6,30.24,SSW,200,2.0,7.0,75,0.00,,,0.01,Wunderground v.1.15,2013-08-26 03:06:00,
2013-08-25 23:07:00,63.7,55.6,30.24,SSW,201,4.0,4.0,75,0.00,,,0.01,Wunderground v.1.15,2013-08-26 03:07:00,
2013-08-25 23:08:00,63.7,55.6,30.24,SSW,205,5.0,5.0,75,0.00,,,0.01,Wunderground v.1.15,2013-08-26 03:08:00,
2013-08-25 23:09:00,63.7,55.6,30.24,SSW,212,3.0,5.0,75,0.00,,,0.01,Wunderground v.1.15,2013-08-26 03:09:00,
2013-08-25 23:11:00,63.7,56.0,30.24,SSW,210,3.0,5.0,76,0.00,,,0.01,Wunderground v.1.15,2013-08-26 03:11:00,
2013-08-25 23:12:00,63.7,56.0,30.24,SSW,210,0.0,5.0,76,0.00,,,0.01,Wunderground v.1.15,2013-08-26 03:12:00,
2013-08-25 23:13:00,63.8,56.1,30.24,SW,217,2.0,5.0,76,0.00,,,0.01,Wunderground v.1.15,2013-08-26 03:13:00,
2013-08-25 23:14:00,63.8,56.1,30.24,SW,217,0.0,5.0,76,0.00,,,0.01,Wunderground v.1.15,2013-08-26 03:14:00,
2013-08-25 23:16:00,63.7,56.0,30.24,SW,218,3.0,5.0,76,0.00,,,0.01,Wunderground v.1.15,2013-08-26 03:16:00,
2013-08-25 23:17:00,63.7,56.0,30.24,SW,218,3.0,3.0,76,0.00,,,0.01,Wunderground v.1.15,2013-08-26 03:17:00,
2013-08-25 23:19:00,63.7,56.0,30.24,SW,214,0.0,3.0,76,0.00,,,0.01,Wunderground v.1.15,2013-08-26 03:19:00,
2013-08-25 23:21:00,63.7,56.0,30.24,SW,234,4.0,5.0,76,0.00,,,0.01,Wunderground v.1.15,2013-08-26 03:21:00,
2013-08-25 23:22:00,63.8,56.1,30.24,SW,234,3.0,5.0,76,0.00,,,0.01,Wunderground v.1.15,2013-08-26 03:22:00,
2013-08-25 23:24:00,63.8,56.1,30.24,SW,234,1.0,5.0,76,0.00,,,0.01,Wunderground v.1.15,2013-08-26 03:24:00,
2013-08-25 23:26:00,63.8,56.1,30.24,WSW,241,0.0,2.0,76,0.00,,,0.01,Wunderground v.1.15,2013-08-26 03:26:00,
2013-08-25 23:27:00,63.8,56.1,30.24,SW,229,0.0,2.0,76,0.00,,,0.01,Wunderground v.1.15,2013-08-26 03:27:00,
2013-08-25 23:29:00,63.9,56.2,30.24,WSW,238,1.0,3.0,76,0.00,,,0.01,Wunderground v.1.15,2013-08-26 03:29:00,
2013-08-25 23:32:00,63.9,56.2,30.24,SW,227,4.0,4.0,76,0.00,,,0.01,Wunderground v.1.15,2013-08-26 03:32:00,
2013-08-25 23:34:00,63.9,56.2,30.24,SW,223,0.0,4.0,76,0.00,,,0.01,Wunderground v.1.15,2013-08-26 03:34:00,
2013-08-25 23:35:00,63.9,56.2,30.24,SW,223,0.0,4.0,76,0.00,,,0.01,Wunderground v.1.15,2013-08-26 03:35:00,
2013-08-25 23:36:00,63.9,56.5,30.24,SSW,211,0.0,4.0,77,0.00,,,0.01,Wunderground v.1.15,2013-08-26 03:36:00,
2013-08-25 23:37:00,63.9,56.2,30.24,SW,225,0.0,3.0,76,0.00,,,0.01,Wunderground v.1.15,2013-08-26 03:37:00,
2013-08-25 23:38:00,63.9,56.5,30.24,SSW,211,3.0,4.0,77,0.00,,,0.01,Wunderground v.1.15,2013-08-26 03:38:00,
2013-08-25 23:39:00,63.9,56.2,30.24,SW,225,4.0,4.0,76,0.00,,,0.01,Wunderground v.1.15,2013-08-26 03:39:00,
2013-08-25 23:40:00,63.9,56.2,30.24,SSW,196,2.0,4.0,76,0.00,,,0.01,Wunderground v.1.15,2013-08-26 03:40:00,
2013-08-25 23:42:00,63.9,56.2,30.24,SW,221,2.0,5.0,76,0.00,,,0.01,Wunderground v.1.15,2013-08-26 03:42:00,
2013-08-25 23:43:00,63.9,56.2,30.24,SW,217,3.0,5.0,76,0.00,,,0.01,Wunderground v.1.15,2013-08-26 03:43:00,
2013-08-25 23:44:00,63.9,56.2,30.24,SW,217,1.0,5.0,76,0.00,,,0.01,Wunderground v.1.15,2013-08-26 03:44:00,
2013-08-25 23:45:00,63.9,56.2,30.24,SW,218,2.0,5.0,76,0.00,,,0.01,Wunderground v.1.15,2013-08-26 03:45:00,
2013-08-25 23:47:00,63.9,56.2,30.23,SW,229,2.0,3.0,76,0.00,,,0.01,Wunderground v.1.15,2013-08-26 03:47:00,
2013-08-25 23:48:00,63.9,56.2,30.23,SW,235,1.0,3.0,76,0.00,,,0.01,Wunderground v.1.15,2013-08-26 03:48:00,
2013-08-25 23:49:00,63.9,56.2,30.24,SSW,192,1.0,3.0,76,0.00,,,0.01,Wunderground v.1.15,2013-08-26 03:49:00,
2013-08-25 23:50:00,63.9,56.2,30.23,SSW,213,2.0,3.0,76,0.00,,,0.01,Wunderground v.1.15,2013-08-26 03:50:00,
2013-08-25 23:52:00,63.9,56.2,30.23,SSW,213,0.0,3.0,76,0.00,,,0.01,Wunderground v.1.15,2013-08-26 03:52:00,
2013-08-25 23:53:00,63.9,56.2,30.23,SSW,213,0.0,3.0,76,0.00,,,0.01,Wunderground v.1.15,2013-08-26 03:53:00,
2013-08-25 23:54:00,63.9,56.2,30.23,SSW,213,0.0,3.0,76,0.00,,,0.01,Wunderground v.1.15,2013-08-26 03:54:00,
2013-08-25 23:55:00,63.8,56.4,30.24,SSW,213,1.0,3.0,77,0.00,,,0.01,Wunderground v.1.15,2013-08-26 03:55:00,
2013-08-25 23:57:00,63.8,56.4,30.24,SSW,210,2.0,4.0,77,0.00,,,0.01,Wunderground v.1.15,2013-08-26 03:57:00,
2013-08-25 23:58:00,63.8,56.4,30.24,SSW,210,1.0,4.0,77,0.00,,,0.01,Wunderground v.1.15,2013-08-26 03:58:00,
2013-08-25 23:59:00,63.8,56.4,30.24,SSW,210,1.0,4.0,77,0.00,,,0.01,Wunderground v.1.15,2013-08-26 03:59:00,